              Height (m), 1500.0000, 1650.0000, 1800.0000, 1950.0000, 2100.0000, 2250.0000, 2400.0000, 2550.0000, 2700.0000, 2850.0000, 3000.0000, 3150.0000, 3300.0000, 3450.0000, 3600.0000, 3750.0000, 3900.0000, 4050.0000, 4200.0000, 4350.0000, 4500.0000, 4650.0000, 4800.0000, 4950.0000, 5100.0000, 5250.0000, 5400.0000, 5550.0000, 5700.0000, 5850.0000, 6000.0000, 6150.0000, 6300.0000, 6450.0000, 6600.0000, 6750.0000, 6900.0000, 7050.0000, 7200.0000, 7350.0000, 7500.0000, 7650.0000, 7800.0000, 7950.0000, 8100.0000, 8250.0000, 8400.0000, 8550.0000, 8700.0000, 8850.0000, 9000.0000, 9150.0000, 9300.0000, 9450.0000, 9600.0000, 9750.0000, 9900.0000,10050.0000,10200.0000,10350.0000,10500.0000,10650.0000,10800.0000,10950.0000,11100.0000,
  7-AUG-2000 14:09:10.00,  999.0000,  999.0000,  999.0000,  999.0000,  999.0000,  999.0000,  999.0000,  999.0000,   -0.3298,   -0.5745,   -1.1904,   -1.6458,   -1.7804,   -1.6820,   -1.1788,   -0.6250,    0.0055,    0.3318,  999.0000,  999.0000,  999.0000,  999.0000,   -0.0632,    0.3523,    1.2169,    1.6522,    1.7443,    1.9783,    2.3119,    2.2513,    1.9485,    2.0825,    1.3059,    0.5508,    0.4103,    0.5352,    0.9605,    1.8902,    1.6310,    0.0417,    0.1470,   -0.1266,    0.1317,    0.1081,    0.0649,    0.0183,    0.2934,    0.6086,    0.9471,    1.3066,    3.4740,  999.0000,  999.0000,   -0.3815,   -1.3002,   -2.0903,   -1.1800,   -0.4045,   -1.1904,   -1.7126,   -0.1279,    1.3372,    2.0858,    2.6411,    2.2843,
  7-AUG-2000 14:15:45.00,   -1.2813,   -1.2931,   -0.5031,    0.1800,    0.4521,    0.6848,    0.7916,    0.8338,  999.0000,  999.0000,    0.4366,    0.4152,  999.0000,  999.0000,    1.0165,    1.1217,    1.0822,    1.0913,  999.0000,  999.0000,    1.3129,    0.8449,   -0.1821,   -0.8350,  999.0000,  999.0000,   -1.7742,   -1.9175,   -1.7296,   -1.5418,   -1.6258,   -1.8662,   -1.8670,   -1.7479,   -1.3593,   -0.8544,   -0.9603,  999.0000,  999.0000,   -1.9555,   -1.8105,   -1.5415,  999.0000,  999.0000,   -1.7992,   -0.9604,    0.0168,  999.0000,  999.0000,    1.2838,    1.0952,    0.8782,  999.0000,  999.0000,  999.0000,   -1.4028,   -1.4858,   -1.5221,   -1.0187,   -0.5439,   -0.2972,    0.0637,    1.1092,    1.9983,    1.6881,
  7-AUG-2000 14:22:21.00,  999.0000,  999.0000,  999.0000,  999.0000,   -0.8051,   -0.5982,   -0.7401,   -0.8585,  999.0000,  999.0000,   -1.0230,   -0.9069,   -0.4490,   -0.1023,    0.0513,    0.1852,    0.2891,   -0.1691,   -1.3760,   -1.7340,   -1.0976,   -0.8367,  999.0000,  999.0000,  999.0000,  999.0000,   -1.4682,   -1.3796,   -1.5925,   -1.9057,   -1.3301,   -0.3402,    0.1988,    0.5123,    1.2215,    2.1018,    2.3705,  999.0000,  999.0000,    2.2401,    1.8082,    1.2910,    0.9572,    0.6622,    0.6894,    0.7703,    0.7078,    0.6273,    0.7934,    0.9807,    1.2234,    1.4689,  999.0000,  999.0000,  999.0000,  999.0000,  999.0000,  999.0000,  999.0000,  999.0000,  999.0000,  999.0000,  999.0000,    2.2912,    2.3374,
  7-AUG-2000 14:28:58.00,  999.0000,  999.0000,  999.0000,  999.0000,  999.0000,  999.0000,  999.0000,  999.0000,  999.0000,  999.0000,  999.0000,  999.0000,   -1.7852,   -1.5838,  999.0000,  999.0000,  999.0000,  999.0000,    0.7008,    0.9332,    0.9024,    0.8199,    0.6838,    0.5554,    0.4340,    0.1191,  999.0000,  999.0000,   -1.2897,   -2.6280,   -2.2024,   -1.7769,   -1.6474,   -1.5927,   -1.2592,   -0.7486,   -0.3859,   -0.1666,   -0.6417,   -1.3762,   -1.5339,   -1.5416,   -1.4731,   -1.3884,   -1.3302,   -1.2764,   -0.8014,   -0.2737,    0.3800,    1.0446,    1.1798,    1.2886,    0.4239,   -0.4439,   -0.5443,   -0.6252,   -0.3163,    0.0014,    0.4205,    0.9022,    1.8841,    2.6471,    2.0989,    1.5953,    1.3029,
  7-AUG-2000 14:35:33.00,  999.0000,   -0.8670,    0.4993,    1.7455,    2.5297,    3.0512,  999.0000,  999.0000,  999.0000,  999.0000,    1.4590,    1.0443,    0.4372,   -0.1849,   -0.8330,   -1.1932,  999.0000,  999.0000,  999.0000,  999.0000,  999.0000,  999.0000,   -0.6556,   -0.7778,   -1.0806,   -1.8420,   -2.9699,   -3.9784,   -4.9029,   -5.0503,   -4.0467,   -3.4766,   -2.6822,  999.0000,   -3.4902,   -2.7565,  999.0000,    0.5132,    0.6319,    0.4023,    0.2574,    0.0749,    0.1136,    0.0405,    0.3300,    0.8296,    1.8304,    2.9160,    3.5583,    4.1624,    2.5934,    1.3334,   -0.3852,   -2.0622,   -0.6880,    0.6101,    0.8072,    1.0118,    1.3033,    1.5776,    1.7137,    1.8973,    2.3663,    2.6126,    1.8071,
  7-AUG-2000 14:42:10.00,   -0.4499,   -0.3901,  999.0000,  999.0000,   -0.7105,   -0.7475,  999.0000,  999.0000,  999.0000,  999.0000,    0.1839,    0.3353,  999.0000,  999.0000,  999.0000,  999.0000,  999.0000,  999.0000,  999.0000,  999.0000,  999.0000,  999.0000,  999.0000,  999.0000,  999.0000,  999.0000,  999.0000,  999.0000,  999.0000,  999.0000,  999.0000,   -5.6832,   -4.4107,  999.0000,  999.0000,  999.0000,  999.0000,    2.4047,    1.8414,  999.0000,  999.0000,  999.0000,  999.0000,  999.0000,  999.0000,    2.9221,    3.1099,    3.2706,    3.6053,    3.9515,  999.0000,  999.0000,  999.0000,  999.0000,  999.0000,  999.0000,  999.0000,  999.0000,  999.0000,  999.0000,  999.0000,  999.0000,  999.0000,  999.0000,  999.0000,
  7-AUG-2000 14:48:46.00,   -3.6905,   -2.6013,   -0.9759,    0.4519,    1.1204,    1.7207,    2.1025,    2.4697,    2.7974,    3.2447,    3.9689,    4.5632,    4.8983,    5.2429,    5.6042,    5.2756,    3.8990,    2.7943,  999.0000,  999.0000,    0.5670,   -0.0901,   -0.6592,   -0.9847,  999.0000,    2.3846,    1.3192,  999.0000,  999.0000,  999.0000,  999.0000,   -4.0379,   -3.7563,  999.0000,  999.0000,  999.0000,  999.0000,    1.4270,    0.4469,   -1.5519,   -2.0577,   -2.2374,  999.0000,  999.0000,  999.0000,  999.0000,  999.0000,    2.1424,    0.6953,   -0.9412,   -1.2776,   -1.5492,   -1.3068,   -1.0041,  999.0000,  999.0000,  999.0000,  999.0000,  999.0000,  999.0000,  999.0000,  999.0000,  999.0000,  999.0000,  999.0000,
  7-AUG-2000 14:55:22.00,    0.1077,    0.0137,  999.0000,  999.0000,   -1.8274,   -2.3837,   -2.7568,   -2.8510,  999.0000,  999.0000,   -0.8717,   -0.3363,   -0.0496,    0.0646,  999.0000,  999.0000,  999.0000,  999.0000,  999.0000,  999.0000,   -1.2359,   -1.1747,  999.0000,  999.0000,  999.0000,  999.0000,  999.0000,  999.0000,  999.0000,   -0.0214,   -0.3998,   -1.0921,   -0.9774,   -0.5420,    1.2015,    3.9486,    4.4195,    4.1395,    3.1631,    5.2524,  999.0000,   -0.4058,   -1.1498,   -1.8436,  999.0000,  999.0000,  999.0000,  999.0000,    5.7896,    5.7933,    5.7933,    4.7021,    3.5756,  999.0000,  999.0000,  999.0000,  999.0000,  999.0000,  999.0000,  999.0000,  999.0000,  999.0000,  999.0000,  999.0000,  999.0000,
  7-AUG-2000 15:01:59.00,  999.0000,    1.3553,    1.7459,    2.1063,    2.3506,    2.2878,  999.0000,  999.0000,   -0.8480,   -1.5516,  999.0000,  999.0000,   -1.2905,   -1.1856,   -1.0495,   -1.1818,   -1.7216,   -1.8807,  999.0000,  999.0000,   -0.8361,   -0.3879,    0.1637,    0.4013,    0.0589,    0.2935,    0.6016,    0.9647,    0.7262,    0.0915,   -0.3768,  999.0000,  999.0000,   -1.5561,   -1.5994,  999.0000,   -0.2154,   -0.1172,  999.0000,   -1.2069,   -0.5911,    0.1785,    0.8303,    1.4571,    0.7841,   -0.1054,   -0.7795,   -1.4266,   -0.2753,    1.0310,    0.8513,    0.5974,  999.0000,  999.0000,  999.0000,  999.0000,  999.0000,  999.0000,  999.0000,  999.0000,  999.0000,  999.0000,  999.0000,  999.0000,  999.0000,
  7-AUG-2000 15:08:37.00,    0.9891,    1.4080,    0.5507,   -0.1266,   -0.1119,   -0.1837,   -0.5319,   -0.8240,   -0.9644,   -0.9120,   -0.4131,    0.0194,    0.3193,    0.4867,  999.0000,  999.0000,    0.2980,    0.5575,    1.2465,    1.8304,    2.2913,    2.1622,  999.0000,  999.0000,    0.6225,    1.0168,    0.5678,    0.0028,   -0.2372,   -0.0127,   -0.0253,   -0.3976,   -0.7734,   -1.2464,   -0.8864,   -0.1665,    0.4442,    0.7694,    0.8859,    1.0836,    0.1791,   -0.9508,   -0.8316,   -0.4481,    0.1974,    0.8866,    0.6614,    0.3219,    0.2236,    0.1461,    0.3394,    0.5462,    0.9184,    1.2719,    0.3042,   -0.6250,   -0.7849,   -0.8853,   -0.2949,    0.2137,    0.0694,    0.1204,    1.3416,    2.3058,    2.0567,
  7-AUG-2000 15:15:14.00,    1.4043,    2.0872,    2.1677,    2.1436,    1.7179,    1.4598,    1.7378,    2.0355,    2.3866,    2.6582,    2.7460,    2.7874,    2.7362,    2.7679,    2.9434,    2.9285,    2.6242,    2.4166,  999.0000,  999.0000,  999.0000,  999.0000,  999.0000,  999.0000,  999.0000,  999.0000,    1.7083,    3.1903,    2.6231,    1.9910,    1.8602,   -0.3504,   -0.5216,   -0.6678,   -0.8024,   -0.6704,   -0.4319,   -1.0211,   -1.8916,   -2.1097,   -2.1419,   -1.6373,   -1.0068,   -0.0943,    0.8712,    2.2073,    3.5971,    3.4255,    3.0905,    2.6061,    2.1116,  999.0000,  999.0000,  999.0000,  999.0000,  999.0000,  999.0000,  999.0000,  999.0000,  999.0000,  999.0000,  999.0000,  999.0000,  999.0000,  999.0000,
  7-AUG-2000 15:21:50.00,    2.1268,    2.5968,    3.0064,    3.2384,  999.0000,  999.0000,    1.8867,    1.4756,  999.0000,  999.0000,  999.0000,  999.0000,   -0.0458,   -0.1127,  999.0000,  999.0000,  999.0000,  999.0000,    1.6160,    1.7486,    1.6316,    1.6571,    1.8298,    2.0794,  999.0000,    1.6470,    1.5039,    1.2087,    1.0780,    2.3174,  999.0000,    1.3740,    1.3374,    0.8855,    1.3463,    2.0604,    1.9743,  999.0000,    2.6860,    1.0162,    0.7541,    0.4955,    0.6195,    0.8245,    1.4017,    2.0410,    2.7613,    3.4918,    3.6515,    3.7621,    2.8641,    1.9157,    1.3234,    1.0681,   -0.0429,   -1.0992,    0.5932,    2.1180,    1.7004,    1.3290,    1.3267,    1.1783,    0.1538,   -0.5547,    0.2284,
  7-AUG-2000 15:29:08.00,    1.0463,    1.3828,    1.9475,    2.4174,    2.5227,    2.4465,    1.7897,    1.1032,    0.3366,    0.1814,    1.4409,    2.7571,    4.1864,    5.1054,    5.1376,    5.2975,    5.6516,    6.2496,    7.1727,    7.3769,    6.7391,    5.7613,    4.4330,    3.3247,   -1.3234,    0.7371,    1.2406,    0.5759,   -0.1162,   -0.8263,   -1.2360,   -2.6064,   -2.0988,   -1.9585,   -1.7841,   -1.4290,   -1.9006,   -2.6778,   -2.8798,   -2.9019,   -2.3194,   -1.5796,   -0.7374,    0.1264,    0.8461,    1.5418,    3.1197,    4.8078,    4.9754,    5.0120,    3.9303,    2.9783,    0.6564,  999.0000,  999.0000,  999.0000,  999.0000,  999.0000,  999.0000,  999.0000,  999.0000,  999.0000,  999.0000,  999.0000,  999.0000,
  7-AUG-2000 15:35:50.00,    1.5899,    1.7876,    1.8345,    1.9202,    2.1558,    2.5749,    3.5814,    3.7961,    1.8694,    0.4746,    0.3108,    0.4918,    1.3623,    2.2327,    3.1032,    3.8127,    4.2779,    4.6603,    4.9324,    4.7100,    3.9083,    3.1384,    2.4010,    1.6921,    3.3563,    3.0505,    2.7440,    2.4372,    1.7828,    0.8998,    0.7022,    0.8989,    1.0037,    1.0626,    0.6735,    0.0907,    0.3932,    1.0230,    1.4475,    1.8079,    1.5991,    1.2424,    0.7625,    0.2565,    0.3705,    0.5877,    1.2474,    1.9624,    2.1670,    2.3278,    5.1087,  999.0000,  999.0000,  999.0000,  999.0000,  999.0000,  999.0000,  999.0000,  999.0000,  999.0000,  999.0000,  999.0000,  999.0000,  999.0000,  999.0000,
  7-AUG-2000 15:42:34.00,    2.4058,    3.6601,  999.0000,  999.0000,  999.0000,  999.0000,    4.0015,    4.2985,    5.2143,    5.6293,  999.0000,  999.0000,    3.3976,    2.8015,    2.4621,    2.1331,    1.8201,    1.6105,    1.5388,    1.4382,    1.3036,    2.3220,    4.5296,    6.7509,    5.9593,    7.5291,    8.0586,    7.8076,    6.8706,    5.4820,    4.8852,    4.7438,    4.6481,    4.5753,    3.5030,    1.9991,    0.5260,   -0.9356,   -1.2862,   -1.2895,   -1.2801,   -1.2675,   -1.9706,   -2.8253,   -2.8879,   -2.8186,   -2.0892,   -1.2774,   -1.2913,   -1.3764,   -1.5652,   -1.7592,   -1.5250,   -0.6957,  999.0000,  999.0000,  999.0000,  999.0000,  999.0000,  999.0000,  999.0000,  999.0000,  999.0000,  999.0000,  999.0000,
  7-AUG-2000 15:49:17.00,    1.4976,    1.4076,    2.2956,    3.4480,  999.0000,  999.0000,  999.0000,  999.0000,   14.2907,   15.6977,   15.3422,   14.6667,  999.0000,  999.0000,   10.7212,    9.0642,  999.0000,  999.0000,    2.5359,    1.5492,  999.0000,  999.0000,    2.7693,    3.0043,   -2.9747,   -4.7192,   -4.2088,   -2.6905,    0.3880,    4.6364,    3.9346,    0.6822,    1.4151,    3.9389,    3.0231,    0.6215,    0.8459,    2.0413,    0.5070,   -1.8805,   -2.4745,   -2.6023,   -3.4152,   -4.3731,   -2.8508,   -0.9150,    1.5666,    3.9025,    4.4582,    4.7482,    3.8092,    2.8089,  999.0000,  999.0000,  999.0000,  999.0000,  999.0000,  999.0000,  999.0000,  999.0000,  999.0000,  999.0000,  999.0000,  999.0000,  999.0000,
  7-AUG-2000 15:57:27.00,    0.1411,   -0.2165,    0.0936,    0.2600,   -0.1262,   -0.5545,   -1.1178,   -1.4512,   -1.1630,   -0.8430,   -0.4495,   -0.5394,   -1.5956,   -2.2257,  999.0000,  999.0000,   -1.8944,   -1.3953,   -0.3786,    1.0875,  999.0000,  999.0000,    7.0650,    7.4851,    6.4771,    5.1700,    3.6236,   -4.7769,   -3.0095,   -0.0110,    1.2822,    2.2422,    4.6400,    7.3501,    7.1188,    5.6169,    3.9712,    2.2722,    2.3637,    3.0148,    2.5803,    1.8635,    2.3518,    3.0950,    3.3776,    3.5834,  999.0000,  999.0000,  999.0000,  999.0000,  999.0000,  999.0000,  999.0000,  999.0000,  999.0000,  999.0000,  999.0000,  999.0000,  999.0000,  999.0000,  999.0000,  999.0000,  999.0000,  999.0000,  999.0000,
  7-AUG-2000 16:04:09.00,    0.7440,    1.0940,   -0.4069,   -1.5368,  999.0000,  999.0000,   -0.6458,   -0.4065,   -0.3231,    0.1553,    1.5480,    2.6286,  999.0000,  999.0000,  999.0000,  999.0000,    4.9132,    3.9354,    1.0461,   -0.5422,   -0.6065,    0.2430,    2.0351,    2.6320,    1.2046,    1.8841,    2.5318,    3.1558,    3.4500,    3.5271,    3.8090,    4.2085,    4.8386,    5.5839,    6.1853,    6.7245,    6.7308,    6.5400,    6.7132,    7.0001,    5.5601,    3.6710,    3.4712,    3.6288,    5.6873,    9.0426,    6.2246,    2.6350,    5.4827,  999.0000,  999.0000,  999.0000,  999.0000,  999.0000,  999.0000,  999.0000,  999.0000,  999.0000,  999.0000,  999.0000,  999.0000,  999.0000,  999.0000,  999.0000,   -5.1631,
  7-AUG-2000 16:10:52.00,    0.7411,    0.5941,    0.7477,    1.0906,    2.1615,    3.0379,    3.2925,    3.2220,    2.2726,    1.1408,   -0.4128,   -1.2034,   -0.4690,   -0.0942,   -0.3444,    0.0884,    1.5587,    2.2248,    1.8195,    1.9041,    2.5624,    2.2730,    1.0061,    0.2536,   -0.5606,    1.3413,    1.4445,    0.1869,    0.2192,    1.0945,    1.7504,    2.2830,    1.7503,    0.6848,   -0.4589,   -1.6364,   -1.6776,   -1.2988,   -0.2791,    0.9410,    1.9131,    2.8206,    5.8225,    9.2674,  999.0000,  999.0000,  999.0000,  999.0000,  999.0000,  999.0000,  999.0000,  999.0000,  999.0000,  999.0000,  999.0000,  999.0000,  999.0000,  999.0000,   -1.9070,   -4.9821,   -7.3854,  999.0000,  999.0000,  999.0000,  999.0000,
  7-AUG-2000 16:17:35.00,  999.0000,  999.0000,  999.0000,  999.0000,  999.0000,  999.0000,  999.0000,  999.0000,  999.0000,  999.0000,  999.0000,  999.0000,  999.0000,  999.0000,  999.0000,  999.0000,  999.0000,  999.0000,  999.0000,  999.0000,  999.0000,  999.0000,  999.0000,  999.0000,  999.0000,  999.0000,  999.0000,  999.0000,  999.0000,  999.0000,  999.0000,  999.0000,  999.0000,  999.0000,  999.0000,  999.0000,  999.0000,  999.0000,  999.0000,  999.0000,  999.0000,  999.0000,  999.0000,  999.0000,  999.0000,  999.0000,  999.0000,  999.0000,  999.0000,  999.0000,  999.0000,  999.0000,  999.0000,  999.0000,  999.0000,  999.0000,  999.0000,  999.0000,  999.0000,  999.0000,  999.0000,  999.0000,  999.0000,  999.0000,  999.0000,
  7-AUG-2000 16:24:18.00,  999.0000,  999.0000,  999.0000,  999.0000,  999.0000,  999.0000,  999.0000,  999.0000,  999.0000,  999.0000,  999.0000,  999.0000,  999.0000,  999.0000,  999.0000,  999.0000,  999.0000,  999.0000,  999.0000,  999.0000,  999.0000,  999.0000,  999.0000,  999.0000,  999.0000,  999.0000,  999.0000,  999.0000,  999.0000,  999.0000,  999.0000,  999.0000,  999.0000,  999.0000,  999.0000,  999.0000,  999.0000,  999.0000,  999.0000,  999.0000,  999.0000,  999.0000,  999.0000,  999.0000,  999.0000,  999.0000,  999.0000,  999.0000,  999.0000,  999.0000,  999.0000,  999.0000,  999.0000,  999.0000,  999.0000,  999.0000,  999.0000,  999.0000,  999.0000,  999.0000,  999.0000,  999.0000,  999.0000,  999.0000,  999.0000,
  7-AUG-2000 16:31:01.00,  999.0000,  999.0000,  999.0000,  999.0000,  999.0000,  999.0000,  999.0000,  999.0000,  999.0000,  999.0000,  999.0000,  999.0000,  999.0000,  999.0000,  999.0000,  999.0000,  999.0000,  999.0000,  999.0000,  999.0000,  999.0000,  999.0000,  999.0000,  999.0000,  999.0000,  999.0000,  999.0000,  999.0000,  999.0000,  999.0000,  999.0000,  999.0000,  999.0000,  999.0000,  999.0000,  999.0000,  999.0000,  999.0000,  999.0000,  999.0000,  999.0000,  999.0000,  999.0000,  999.0000,  999.0000,  999.0000,  999.0000,  999.0000,  999.0000,  999.0000,  999.0000,  999.0000,  999.0000,  999.0000,  999.0000,  999.0000,  999.0000,  999.0000,  999.0000,  999.0000,  999.0000,  999.0000,  999.0000,  999.0000,  999.0000,
  7-AUG-2000 16:37:44.00,  999.0000,  999.0000,  999.0000,  999.0000,  999.0000,  999.0000,  999.0000,  999.0000,  999.0000,  999.0000,  999.0000,  999.0000,  999.0000,  999.0000,  999.0000,  999.0000,  999.0000,  999.0000,  999.0000,  999.0000,  999.0000,  999.0000,  999.0000,  999.0000,  999.0000,  999.0000,  999.0000,  999.0000,  999.0000,  999.0000,  999.0000,  999.0000,  999.0000,  999.0000,  999.0000,  999.0000,  999.0000,  999.0000,  999.0000,  999.0000,  999.0000,  999.0000,  999.0000,  999.0000,  999.0000,  999.0000,  999.0000,  999.0000,  999.0000,  999.0000,  999.0000,  999.0000,  999.0000,  999.0000,  999.0000,  999.0000,  999.0000,  999.0000,  999.0000,  999.0000,  999.0000,  999.0000,  999.0000,  999.0000,  999.0000,
  7-AUG-2000 16:44:27.00,  999.0000,  999.0000,  999.0000,  999.0000,  999.0000,  999.0000,  999.0000,  999.0000,  999.0000,  999.0000,  999.0000,  999.0000,  999.0000,  999.0000,  999.0000,  999.0000,  999.0000,  999.0000,  999.0000,  999.0000,  999.0000,  999.0000,  999.0000,  999.0000,  999.0000,  999.0000,  999.0000,  999.0000,  999.0000,  999.0000,  999.0000,  999.0000,  999.0000,  999.0000,  999.0000,  999.0000,  999.0000,  999.0000,  999.0000,  999.0000,  999.0000,  999.0000,  999.0000,  999.0000,  999.0000,  999.0000,  999.0000,  999.0000,  999.0000,  999.0000,  999.0000,  999.0000,  999.0000,  999.0000,  999.0000,  999.0000,  999.0000,  999.0000,  999.0000,  999.0000,  999.0000,  999.0000,  999.0000,  999.0000,  999.0000,
  7-AUG-2000 16:51:10.00,  999.0000,  999.0000,  999.0000,  999.0000,  999.0000,  999.0000,  999.0000,  999.0000,  999.0000,  999.0000,  999.0000,  999.0000,  999.0000,  999.0000,  999.0000,  999.0000,  999.0000,  999.0000,  999.0000,  999.0000,  999.0000,  999.0000,  999.0000,  999.0000,  999.0000,  999.0000,  999.0000,  999.0000,  999.0000,  999.0000,  999.0000,  999.0000,  999.0000,  999.0000,  999.0000,  999.0000,  999.0000,  999.0000,  999.0000,  999.0000,  999.0000,  999.0000,  999.0000,  999.0000,  999.0000,  999.0000,  999.0000,  999.0000,  999.0000,  999.0000,  999.0000,  999.0000,  999.0000,  999.0000,  999.0000,  999.0000,  999.0000,  999.0000,  999.0000,  999.0000,  999.0000,  999.0000,  999.0000,  999.0000,  999.0000,
  7-AUG-2000 16:57:53.00,  999.0000,  999.0000,  999.0000,  999.0000,  999.0000,  999.0000,  999.0000,  999.0000,  999.0000,  999.0000,  999.0000,  999.0000,  999.0000,  999.0000,  999.0000,  999.0000,  999.0000,  999.0000,  999.0000,  999.0000,  999.0000,  999.0000,  999.0000,  999.0000,  999.0000,  999.0000,  999.0000,  999.0000,  999.0000,  999.0000,  999.0000,  999.0000,  999.0000,  999.0000,  999.0000,  999.0000,  999.0000,  999.0000,  999.0000,  999.0000,  999.0000,  999.0000,  999.0000,  999.0000,  999.0000,  999.0000,  999.0000,  999.0000,  999.0000,  999.0000,  999.0000,  999.0000,  999.0000,  999.0000,  999.0000,  999.0000,  999.0000,  999.0000,  999.0000,  999.0000,  999.0000,  999.0000,  999.0000,  999.0000,  999.0000,
  7-AUG-2000 17:04:36.00,  999.0000,  999.0000,  999.0000,  999.0000,  999.0000,  999.0000,  999.0000,  999.0000,  999.0000,  999.0000,  999.0000,  999.0000,  999.0000,  999.0000,  999.0000,  999.0000,  999.0000,  999.0000,  999.0000,  999.0000,  999.0000,  999.0000,  999.0000,  999.0000,  999.0000,  999.0000,  999.0000,  999.0000,  999.0000,  999.0000,  999.0000,  999.0000,  999.0000,  999.0000,  999.0000,  999.0000,  999.0000,  999.0000,  999.0000,  999.0000,  999.0000,  999.0000,  999.0000,  999.0000,  999.0000,  999.0000,  999.0000,  999.0000,  999.0000,  999.0000,  999.0000,  999.0000,  999.0000,  999.0000,  999.0000,  999.0000,  999.0000,  999.0000,  999.0000,  999.0000,  999.0000,  999.0000,  999.0000,  999.0000,  999.0000,
  7-AUG-2000 17:11:19.00,  999.0000,  999.0000,  999.0000,  999.0000,  999.0000,  999.0000,  999.0000,  999.0000,  999.0000,  999.0000,  999.0000,  999.0000,  999.0000,  999.0000,  999.0000,  999.0000,  999.0000,  999.0000,  999.0000,  999.0000,  999.0000,  999.0000,  999.0000,  999.0000,  999.0000,  999.0000,  999.0000,  999.0000,  999.0000,  999.0000,  999.0000,  999.0000,  999.0000,  999.0000,  999.0000,  999.0000,  999.0000,  999.0000,  999.0000,  999.0000,  999.0000,  999.0000,  999.0000,  999.0000,  999.0000,  999.0000,  999.0000,  999.0000,  999.0000,  999.0000,  999.0000,  999.0000,  999.0000,  999.0000,  999.0000,  999.0000,  999.0000,  999.0000,  999.0000,  999.0000,  999.0000,  999.0000,  999.0000,  999.0000,  999.0000,
  7-AUG-2000 17:18:02.00,  999.0000,  999.0000,  999.0000,  999.0000,  999.0000,  999.0000,  999.0000,  999.0000,  999.0000,  999.0000,  999.0000,  999.0000,  999.0000,  999.0000,  999.0000,  999.0000,  999.0000,  999.0000,  999.0000,  999.0000,  999.0000,  999.0000,  999.0000,  999.0000,  999.0000,  999.0000,  999.0000,  999.0000,  999.0000,  999.0000,  999.0000,  999.0000,  999.0000,  999.0000,  999.0000,  999.0000,  999.0000,  999.0000,  999.0000,  999.0000,  999.0000,  999.0000,  999.0000,  999.0000,  999.0000,  999.0000,  999.0000,  999.0000,  999.0000,  999.0000,  999.0000,  999.0000,  999.0000,  999.0000,  999.0000,  999.0000,  999.0000,  999.0000,  999.0000,  999.0000,  999.0000,  999.0000,  999.0000,  999.0000,  999.0000,
  7-AUG-2000 17:24:45.00,  999.0000,  999.0000,  999.0000,  999.0000,  999.0000,  999.0000,  999.0000,  999.0000,  999.0000,  999.0000,  999.0000,  999.0000,  999.0000,  999.0000,  999.0000,  999.0000,  999.0000,  999.0000,  999.0000,  999.0000,  999.0000,  999.0000,  999.0000,  999.0000,  999.0000,  999.0000,  999.0000,  999.0000,  999.0000,  999.0000,  999.0000,  999.0000,  999.0000,  999.0000,  999.0000,  999.0000,  999.0000,  999.0000,  999.0000,  999.0000,  999.0000,  999.0000,  999.0000,  999.0000,  999.0000,  999.0000,  999.0000,  999.0000,  999.0000,  999.0000,  999.0000,  999.0000,  999.0000,  999.0000,  999.0000,  999.0000,  999.0000,  999.0000,  999.0000,  999.0000,  999.0000,  999.0000,  999.0000,  999.0000,  999.0000,
  7-AUG-2000 17:31:28.00,  999.0000,  999.0000,  999.0000,  999.0000,  999.0000,  999.0000,  999.0000,  999.0000,  999.0000,  999.0000,  999.0000,  999.0000,  999.0000,  999.0000,  999.0000,  999.0000,  999.0000,  999.0000,  999.0000,  999.0000,  999.0000,  999.0000,  999.0000,  999.0000,  999.0000,  999.0000,  999.0000,  999.0000,  999.0000,  999.0000,  999.0000,  999.0000,  999.0000,  999.0000,  999.0000,  999.0000,  999.0000,  999.0000,  999.0000,  999.0000,  999.0000,  999.0000,  999.0000,  999.0000,  999.0000,  999.0000,  999.0000,  999.0000,  999.0000,  999.0000,  999.0000,  999.0000,  999.0000,  999.0000,  999.0000,  999.0000,  999.0000,  999.0000,  999.0000,  999.0000,  999.0000,  999.0000,  999.0000,  999.0000,  999.0000,
  7-AUG-2000 17:38:11.00,  999.0000,  999.0000,  999.0000,  999.0000,  999.0000,  999.0000,  999.0000,  999.0000,  999.0000,  999.0000,  999.0000,  999.0000,  999.0000,  999.0000,  999.0000,  999.0000,  999.0000,  999.0000,  999.0000,  999.0000,  999.0000,  999.0000,  999.0000,  999.0000,  999.0000,  999.0000,  999.0000,  999.0000,  999.0000,  999.0000,  999.0000,  999.0000,  999.0000,  999.0000,  999.0000,  999.0000,  999.0000,  999.0000,  999.0000,  999.0000,  999.0000,  999.0000,  999.0000,  999.0000,  999.0000,  999.0000,  999.0000,  999.0000,  999.0000,  999.0000,  999.0000,  999.0000,  999.0000,  999.0000,  999.0000,  999.0000,  999.0000,  999.0000,  999.0000,  999.0000,  999.0000,  999.0000,  999.0000,  999.0000,  999.0000,
  7-AUG-2000 17:44:54.00,  999.0000,  999.0000,  999.0000,  999.0000,  999.0000,  999.0000,  999.0000,  999.0000,  999.0000,  999.0000,  999.0000,  999.0000,  999.0000,  999.0000,  999.0000,  999.0000,  999.0000,  999.0000,  999.0000,  999.0000,  999.0000,  999.0000,  999.0000,  999.0000,  999.0000,  999.0000,  999.0000,  999.0000,  999.0000,  999.0000,  999.0000,  999.0000,  999.0000,  999.0000,  999.0000,  999.0000,  999.0000,  999.0000,  999.0000,  999.0000,  999.0000,  999.0000,  999.0000,  999.0000,  999.0000,  999.0000,  999.0000,  999.0000,  999.0000,  999.0000,  999.0000,  999.0000,  999.0000,  999.0000,  999.0000,  999.0000,  999.0000,  999.0000,  999.0000,  999.0000,  999.0000,  999.0000,  999.0000,  999.0000,  999.0000,
  7-AUG-2000 17:51:37.00,  999.0000,  999.0000,  999.0000,  999.0000,  999.0000,  999.0000,  999.0000,  999.0000,  999.0000,  999.0000,  999.0000,  999.0000,  999.0000,  999.0000,  999.0000,  999.0000,  999.0000,  999.0000,  999.0000,  999.0000,  999.0000,  999.0000,  999.0000,  999.0000,  999.0000,  999.0000,  999.0000,  999.0000,  999.0000,  999.0000,  999.0000,  999.0000,  999.0000,  999.0000,  999.0000,  999.0000,  999.0000,  999.0000,  999.0000,  999.0000,  999.0000,  999.0000,  999.0000,  999.0000,  999.0000,  999.0000,  999.0000,  999.0000,  999.0000,  999.0000,  999.0000,  999.0000,  999.0000,  999.0000,  999.0000,  999.0000,  999.0000,  999.0000,  999.0000,  999.0000,  999.0000,  999.0000,  999.0000,  999.0000,  999.0000,
  7-AUG-2000 17:58:20.00,  999.0000,  999.0000,  999.0000,  999.0000,  999.0000,  999.0000,  999.0000,  999.0000,  999.0000,  999.0000,  999.0000,  999.0000,  999.0000,  999.0000,  999.0000,  999.0000,  999.0000,  999.0000,  999.0000,  999.0000,  999.0000,  999.0000,  999.0000,  999.0000,  999.0000,  999.0000,  999.0000,  999.0000,  999.0000,  999.0000,  999.0000,  999.0000,  999.0000,  999.0000,  999.0000,  999.0000,  999.0000,  999.0000,  999.0000,  999.0000,  999.0000,  999.0000,  999.0000,  999.0000,  999.0000,  999.0000,  999.0000,  999.0000,  999.0000,  999.0000,  999.0000,  999.0000,  999.0000,  999.0000,  999.0000,  999.0000,  999.0000,  999.0000,  999.0000,  999.0000,  999.0000,  999.0000,  999.0000,  999.0000,  999.0000,
  7-AUG-2000 18:05:03.00,  999.0000,  999.0000,  999.0000,  999.0000,  999.0000,  999.0000,  999.0000,  999.0000,  999.0000,  999.0000,  999.0000,  999.0000,  999.0000,  999.0000,  999.0000,  999.0000,  999.0000,  999.0000,  999.0000,  999.0000,  999.0000,  999.0000,  999.0000,  999.0000,  999.0000,  999.0000,  999.0000,  999.0000,  999.0000,  999.0000,  999.0000,  999.0000,  999.0000,  999.0000,  999.0000,  999.0000,  999.0000,  999.0000,  999.0000,  999.0000,  999.0000,  999.0000,  999.0000,  999.0000,  999.0000,  999.0000,  999.0000,  999.0000,  999.0000,  999.0000,  999.0000,  999.0000,  999.0000,  999.0000,  999.0000,  999.0000,  999.0000,  999.0000,  999.0000,  999.0000,  999.0000,  999.0000,  999.0000,  999.0000,  999.0000,
  7-AUG-2000 18:11:46.00,  999.0000,  999.0000,  999.0000,  999.0000,  999.0000,  999.0000,  999.0000,  999.0000,  999.0000,  999.0000,  999.0000,  999.0000,  999.0000,  999.0000,  999.0000,  999.0000,  999.0000,  999.0000,  999.0000,  999.0000,  999.0000,  999.0000,  999.0000,  999.0000,  999.0000,  999.0000,  999.0000,  999.0000,  999.0000,  999.0000,  999.0000,  999.0000,  999.0000,  999.0000,  999.0000,  999.0000,  999.0000,  999.0000,  999.0000,  999.0000,  999.0000,  999.0000,  999.0000,  999.0000,  999.0000,  999.0000,  999.0000,  999.0000,  999.0000,  999.0000,  999.0000,  999.0000,  999.0000,  999.0000,  999.0000,  999.0000,  999.0000,  999.0000,  999.0000,  999.0000,  999.0000,  999.0000,  999.0000,  999.0000,  999.0000,
  7-AUG-2000 18:18:29.00,  999.0000,  999.0000,  999.0000,  999.0000,  999.0000,  999.0000,  999.0000,  999.0000,  999.0000,  999.0000,  999.0000,  999.0000,  999.0000,  999.0000,  999.0000,  999.0000,  999.0000,  999.0000,  999.0000,  999.0000,  999.0000,  999.0000,  999.0000,  999.0000,  999.0000,  999.0000,  999.0000,  999.0000,  999.0000,  999.0000,  999.0000,  999.0000,  999.0000,  999.0000,  999.0000,  999.0000,  999.0000,  999.0000,  999.0000,  999.0000,  999.0000,  999.0000,  999.0000,  999.0000,  999.0000,  999.0000,  999.0000,  999.0000,  999.0000,  999.0000,  999.0000,  999.0000,  999.0000,  999.0000,  999.0000,  999.0000,  999.0000,  999.0000,  999.0000,  999.0000,  999.0000,  999.0000,  999.0000,  999.0000,  999.0000,
  7-AUG-2000 18:25:12.00,  999.0000,  999.0000,  999.0000,  999.0000,  999.0000,  999.0000,  999.0000,  999.0000,  999.0000,  999.0000,  999.0000,  999.0000,  999.0000,  999.0000,  999.0000,  999.0000,  999.0000,  999.0000,  999.0000,  999.0000,  999.0000,  999.0000,  999.0000,  999.0000,  999.0000,  999.0000,  999.0000,  999.0000,  999.0000,  999.0000,  999.0000,  999.0000,  999.0000,  999.0000,  999.0000,  999.0000,  999.0000,  999.0000,  999.0000,  999.0000,  999.0000,  999.0000,  999.0000,  999.0000,  999.0000,  999.0000,  999.0000,  999.0000,  999.0000,  999.0000,  999.0000,  999.0000,  999.0000,  999.0000,  999.0000,  999.0000,  999.0000,  999.0000,  999.0000,  999.0000,  999.0000,  999.0000,  999.0000,  999.0000,  999.0000,
  7-AUG-2000 18:31:40.00,   -1.1937,   -0.7661,   -0.2394,    0.1809,  999.0000,  999.0000,    0.2160,    0.1389,   -0.1786,   -0.5062,   -0.8573,   -0.9202,  999.0000,  999.0000,  999.0000,  999.0000,  999.0000,  999.0000,    2.6717,    2.3334,    0.9977,    0.7085,    1.4985,    1.6477,  999.0000,  999.0000,  999.0000,  999.0000,  999.0000,   -1.2321,   -1.5200,   -1.8078,   -1.1801,   -0.0945,    0.5952,    1.1138,    1.8485,    2.6632,    2.6232,    2.3161,    2.8389,    3.5776,    3.9748,    4.2997,    4.3407,    4.3343,    4.5004,    4.6880,    4.1906,    3.8031,    3.4557,    3.3374,    3.5279,    3.7288,    4.1091,    4.4842,    4.7564,    5.0171,    5.1436,    5.2734,    5.4294,    5.4993,    5.0533,    4.5938,    4.0707,
  7-AUG-2000 18:38:16.00,   -0.8305,   -0.5170,  999.0000,  999.0000,    0.3454,    0.5821,    0.6567,    0.6054,    0.2133,   -0.1969,   -0.6489,   -1.1646,  999.0000,  999.0000,   -3.0935,   -3.2127,  999.0000,  999.0000,  999.0000,  999.0000,    0.1691,    0.3109,   -0.0987,   -0.6337,  999.0000,  999.0000,   -2.5801,   -2.3943,  999.0000,   -1.7889,   -0.9444,   -0.0426,    0.8410,    1.7154,    1.9715,    1.9603,    2.2967,    2.7714,    2.5802,    2.1875,    2.5971,    3.2144,    3.2059,    3.0650,    3.9592,    5.0258,    5.6254,    5.9324,    6.5268,    6.6657,    6.7886,    7.0782,    6.3986,    5.7738,    5.8059,    5.7495,    5.7745,    5.8167,    6.0569,    6.2936,    6.5029,    6.6403,    6.3466,    5.9536,    5.0914,
  7-AUG-2000 18:44:51.00,   -0.0523,   -0.0159,    0.2065,    0.4905,    1.0113,    1.4460,    1.6055,    1.4794,    0.5812,   -0.1467,   -0.4803,   -0.5162,    0.0426,    0.5299,  999.0000,  999.0000,    1.6183,    1.7042,  999.0000,  999.0000,    0.8549,    0.5513,    0.2266,   -0.2715,   -0.9269,   -1.0323,  999.0000,   -1.7392,   -1.6919,   -1.6446,   -0.7744,    0.5690,    1.0121,    1.0047,    1.5513,    2.3371,    2.8922,  999.0000,  999.0000,    4.3595,    4.5850,    4.7383,    4.7084,    4.6398,    4.7276,    4.8414,  999.0000,  999.0000,    6.8812,    7.6642,    7.6088,    7.5148,    6.7778,    6.2936,    5.8223,    5.2376,    5.2684,    5.2960,    5.2859,    5.3317,    5.8244,    6.3584,    7.1404,    7.6034,    6.5599,
  7-AUG-2000 18:51:28.00,   -0.9053,   -1.1079,   -1.2030,   -1.1685,   -0.6360,   -0.2833,   -0.5057,   -0.7055,   -0.8445,   -0.9147,  999.0000,  999.0000,  999.0000,  999.0000,  999.0000,  999.0000,   -0.2926,    0.2455,    1.3822,    1.8128,    1.4164,    0.6094,   -0.6209,   -1.2065,   -1.2065,   -1.1910,   -1.1632,   -1.1560,   -1.1031,   -1.0502,   -0.0671,    1.4510,    2.3702,    2.9899,    2.9421,    2.6060,    3.1101,    3.9248,    4.8348,    5.7746,    5.8873,    5.7850,    5.8548,    5.8242,    6.3577,    6.7617,    6.9152,    7.0148,    6.9626,    6.8974,    6.8922,    6.8900,    6.8963,    6.8931,    6.3036,    5.7445,    5.7923,    5.8457,    5.9686,    6.0726,    6.7037,    7.4332,    7.7410,    7.8083,    6.7405,
  7-AUG-2000 18:58:04.00,  999.0000,   -0.4659,   -0.5449,   -0.3940,    0.6402,    1.3426,  999.0000,  999.0000,    0.2652,    0.0744,    0.2734,    0.4845,  999.0000,  999.0000,  999.0000,  999.0000,  999.0000,  999.0000,    2.1333,    2.1680,    1.9676,    1.2306,   -0.0597,   -0.3748,    0.1958,    0.3061,    0.0486,   -1.1431,   -1.1286,   -1.1001,   -0.4575,    0.5384,    0.7826,    0.8533,    1.3190,    1.9844,    2.6327,    3.2747,    3.4070,    3.3202,    3.8003,    4.4203,    5.2724,    5.3388,    5.3154,    4.4498,    4.7534,    5.2517,    5.3162,    5.3006,    5.1858,    5.0682,    4.9514,    4.8361,    4.8159,    4.7938,    4.7345,    4.7299,    6.2121,    7.0664,    7.7486,    7.2898,    7.5036,    7.5770,    7.4429,
  7-AUG-2000 19:03:52.00,  999.0000,  999.0000,  999.0000,  999.0000,  999.0000,  999.0000,  999.0000,  999.0000,  999.0000,  999.0000,  999.0000,  999.0000,  999.0000,  999.0000,  999.0000,  999.0000,  999.0000,  999.0000,  999.0000,  999.0000,  999.0000,  999.0000,  999.0000,  999.0000,    0.2829,    0.2140,    0.1950,    0.1932,    0.2034,    0.8696,    1.9390,    2.3750,  999.0000,    2.0753,    2.5737,    3.2955,    3.2816,    3.1006,    3.3575,  999.0000,    4.3155,    4.4877,    4.6106,    5.1031,    5.1082,    5.0754,  999.0000,  999.0000,  999.0000,    6.0469,    6.0574,    5.7424,    5.6438,    5.5396,    5.1769,    4.8281,    4.7557,    4.6986,    4.8193,    4.9417,  999.0000,  999.0000,  999.0000,  999.0000,  999.0000,
  7-AUG-2000 19:08:56.00,  999.0000,  999.0000,  999.0000,  999.0000,  999.0000,  999.0000,   -2.1906,   -1.9120,  999.0000,  999.0000,  999.0000,  999.0000,   -0.2077,   -0.2441,   -0.9361,   -1.1686,   -0.7034,   -0.1209,    0.6179,    1.0376,  999.0000,  999.0000,    1.1759,    1.2860,    1.4542,    0.1977,    0.2137,    0.2991,    0.6086,    0.9926,    1.4276,    1.9799,    1.7746,    1.2380,    1.3407,    2.4528,    2.6093,    2.5148,    2.9477,    3.3908,    4.0172,    4.6914,    4.6909,    4.2226,    4.2170,    4.2956,    4.4635,    4.6415,  999.0000,  999.0000,  999.0000,    3.8671,    4.2698,    4.6735,    4.5424,    4.4106,    4.2642,    4.1323,    4.1679,    4.2507,    4.7107,    5.1206,  999.0000,  999.0000,    5.4735,
  7-AUG-2000 19:14:00.00,  999.0000,  999.0000,  999.0000,  999.0000,  999.0000,  999.0000,  999.0000,  999.0000,  999.0000,  999.0000,  999.0000,  999.0000,   -1.3249,   -1.1050,  999.0000,  999.0000,  999.0000,  999.0000,  999.0000,  999.0000,    2.1643,    2.1245,  999.0000,  999.0000,    0.2701,   -0.1510,   -0.0331,    0.4459,    0.8347,    0.5546,  999.0000,    1.8384,    2.1213,    2.3762,    2.3127,    2.1117,    2.0039,    1.9306,    2.5469,    3.3786,    3.4902,    3.4146,  999.0000,  999.0000,  999.0000,    4.6583,    5.4827,    6.3164,    6.0159,    5.5014,    5.2748,    5.0530,    5.4442,    5.8386,    5.8197,    5.7917,    5.5858,    5.3801,    5.1770,    5.0425,    5.4561,    5.7622,    5.4248,    5.0876,    4.7510,
  7-AUG-2000 19:19:04.00,   -0.8300,    0.6519,  999.0000,  999.0000,  999.0000,  999.0000,   -1.3767,   -1.4836,  999.0000,  999.0000,    0.6209,    0.6045,   -0.8468,   -1.5731,  999.0000,  999.0000,  999.0000,  999.0000,    1.0943,    1.6523,    2.2389,    2.2775,    1.7508,    1.4062,  999.0000,   -0.0334,    0.1696,    0.3727,    0.4826,    0.5312,    0.6425,    0.7898,    1.5176,    2.5356,    2.7561,    2.6322,    2.6118,    2.5420,    3.1240,    3.8993,    4.2340,    4.4542,    4.2916,    3.9896,    4.4456,    5.0222,    5.9858,    5.5272,    4.9947,    4.4566,    4.6762,    4.9195,    4.9471,    4.9686,    4.8287,    4.7120,    5.0666,    5.3430,    5.2793,    5.2552,    5.6087,    5.8737,    5.9982,    6.1962,    6.7414,
  7-AUG-2000 19:24:08.00,  999.0000,  999.0000,  999.0000,  999.0000,  999.0000,  999.0000,  999.0000,  999.0000,   -0.2192,    0.2180,    0.7403,    0.8793,  999.0000,  999.0000,  999.0000,  999.0000,   -2.2563,   -2.3592,   -1.7638,   -1.3983,  999.0000,  999.0000,  999.0000,  999.0000,   -0.9180,   -0.7213,   -0.3513,    0.0186,    0.2894,    0.4948,    0.8365,    1.2567,    1.7243,    2.2157,    2.3324,    2.2872,    2.5620,  999.0000,    4.1825,    4.1145,    3.8146,    4.3015,    4.9729,    4.1738,    4.9781,    5.8973,    6.2292,    6.4877,    5.6303,    4.6768,    4.6748,    4.7204,    4.9688,    5.2119,    4.9315,    4.6725,    3.9683,    4.1117,    4.3317,    5.2753,    6.1290,  999.0000,  999.0000,  999.0000,    7.1994,
  7-AUG-2000 19:29:13.00,  999.0000,   -2.1165,   -1.5401,   -1.0984,   -1.1744,   -1.3292,   -1.7359,   -1.8693,   -1.2637,   -0.7759,   -0.5608,   -0.4687,   -0.6223,   -0.8980,  999.0000,  999.0000,   -2.3617,   -2.5250,   -2.2558,   -1.1465,    0.9470,    1.6058,    0.7851,    0.0571,   -0.5865,   -0.9259,    0.4270,    1.7799,    2.1185,    1.7894,    1.3549,    0.8599,    1.2084,    1.9790,    2.1695,    2.1094,    2.2262,    2.4084,    3.3822,    4.9037,    4.5770,    3.7092,    4.1404,    4.7981,    5.9598,    6.9304,    7.2228,    7.6657,    6.5272,    5.2646,    5.3296,    5.4610,    5.7935,    6.1154,    5.5858,    5.0654,    4.7256,    4.4210,    4.5224,    4.6168,  999.0000,  999.0000,  999.0000,  999.0000,  999.0000,
  7-AUG-2000 19:34:17.00,   -1.5509,   -1.8963,   -1.3784,   -0.8714,  999.0000,  999.0000,    0.5242,    0.7600,    0.3752,    0.3625,    1.2110,    1.9024,    2.2799,    2.1962,  999.0000,  999.0000,   -0.4590,   -1.2067,   -1.7714,   -1.9730,  999.0000,  999.0000,   -1.3015,   -1.4702,   -1.9954,   -1.0405,   -0.9448,   -0.8490,   -1.0468,   -1.4378,   -1.6735,   -1.8751,   -0.8727,    0.6830,    1.5968,    1.4527,    1.6293,    2.2467,    2.4830,  999.0000,  999.0000,    3.2700,    3.7903,    4.3697,  999.0000,  999.0000,  999.0000,    6.6072,    6.5962,    6.0912,    5.9074,    5.7397,    5.3354,    4.9337,    4.9243,    4.8999,    4.5768,    4.3188,    4.8146,    5.2378,    5.0807,    5.0515,    5.7888,    6.5069,    7.1341,
  7-AUG-2000 19:39:21.00,   -1.3754,   -0.9599,   -0.5371,   -0.1184,  999.0000,  999.0000,    1.0907,    1.4746,    1.8067,    2.4460,    3.7963,    4.4894,    3.8691,    2.9804,  999.0000,  999.0000,   -1.0858,   -1.8877,   -1.9521,   -1.4754,   -0.3651,    0.0971,  999.0000,  999.0000,  999.0000,   -0.9058,   -0.7169,   -0.5253,   -0.3497,   -0.1845,   -0.2688,  999.0000,    0.9670,    0.7891,    0.3633,   -1.4968,   -1.0857,    1.1044,    2.0787,    3.0417,    4.0013,    3.5996,    2.8784,    3.3158,    3.9712,    4.2193,    3.9519,    3.6629,    3.0186,    3.2291,    3.4763,    3.7604,    4.0455,    3.9358,    3.8300,    3.8417,    3.8744,  999.0000,  999.0000,  999.0000,  999.0000,  999.0000,  999.0000,  999.0000,  999.0000,
  7-AUG-2000 19:44:25.00,   -2.0003,   -2.1296,   -1.9087,   -1.6467,   -1.2269,   -0.6829,    0.2577,    1.3299,    2.7577,    3.5583,    2.9073,    2.2895,    1.7379,    1.0133,   -0.0122,   -0.7665,   -1.1088,   -1.2253,   -1.0410,   -0.5562,    0.2806,    0.4735,    0.0025,   -0.4655,    0.0404,   -0.4204,   -0.8179,   -1.1680,   -1.1018,   -0.7616,   -0.4328,   -0.1105,    0.2368,    1.0697,  999.0000,    1.3947,    2.0948,    2.9036,    3.4634,    3.7792,    3.9717,    3.9320,    3.5828,    3.1730,    3.5817,    3.6988,    3.9051,    4.7234,    4.5548,    4.2451,    3.9503,    3.7923,    3.7729,    3.7569,    3.7405,    3.7117,    3.4375,    3.2364,    3.8820,    4.4078,    3.9752,    3.7789,    4.9984,    5.9134,    5.3904,
  7-AUG-2000 19:49:29.00,    0.1980,    1.1081,  999.0000,  999.0000,    2.5345,    2.9737,    3.2970,    3.4603,    3.1912,    2.8767,  999.0000,  999.0000,    1.6194,    1.0845,  999.0000,  999.0000,   -1.1230,   -1.2291,  999.0000,  999.0000,    0.9697,    1.0530,  999.0000,  999.0000,    0.3973,   -0.4009,   -0.8557,   -1.0528,   -1.1586,   -1.2044,   -1.0932,   -0.8917,   -0.1097,    0.9627,    2.2373,    3.5992,    4.6230,    5.5218,    5.4005,    3.9763,    3.8651,    4.3200,    4.8135,    5.4763,    5.7093,    5.8707,    5.4888,    5.0389,    5.0092,    4.7321,    4.4600,    4.1745,    4.0336,    3.8941,    3.9759,    3.8570,    3.7033,    3.4236,    3.6136,    3.7850,    3.8078,    3.8890,    4.3202,    4.7609,    5.2467,
  7-AUG-2000 19:54:33.00,   -1.2295,   -0.7301,   -0.2283,    0.3761,    1.3753,    2.2588,    2.7723,    3.2262,    3.5187,    3.5648,  999.0000,  999.0000,    1.9914,    1.4779,  999.0000,  999.0000,   -0.0055,    0.1518,  999.0000,  999.0000,    3.2283,    3.3161,    2.4369,    1.5822,    1.8924,    1.1296,    1.0533,    1.4923,    1.6857,    1.7175,    1.6801,    1.6030,    1.6609,    1.7863,    2.1462,    2.6074,    3.2919,    4.0589,    4.2924,    4.3591,    4.8922,    5.5465,    5.9590,    6.3203,    6.2037,    6.0075,    5.7971,    5.5849,    5.0333,    4.4525,    3.9722,    3.4968,    3.4450,    3.4059,    4.7601,    4.9532,    5.1322,    4.5988,    4.3104,    4.1173,    4.1258,    4.7588,    5.5734,    6.2773,    6.4591,
  7-AUG-2000 19:59:38.00,   -1.6011,   -0.8179,    0.0716,    0.8418,    1.1534,    1.5587,    2.2638,    2.9417,    3.5459,    3.9779,    4.0116,    3.6930,    2.6704,    1.9508,  999.0000,  999.0000,  999.0000,  999.0000,    0.9853,    1.6013,    3.1652,    3.7607,  999.0000,  999.0000,    2.4562,    1.8969,    1.8624,    2.4828,    2.6750,    2.7741,    2.3439,    1.2774,    1.0589,    1.2501,    1.6007,    2.1322,    2.5874,    3.0145,    3.6440,    4.3367,    4.5799,    4.6618,    4.3952,    4.0549,    4.1661,    4.2448,    3.8950,    3.4768,    3.5130,    3.5884,    4.0205,    4.4704,    4.6545,    4.8414,    5.4703,    6.0840,    6.3956,    6.7029,    6.9621,    7.2164,  999.0000,  999.0000,  999.0000,  999.0000,  999.0000,
  7-AUG-2000 20:04:42.00,   -0.5871,    0.7182,    1.7145,    2.5507,    2.7716,    2.8437,    2.4399,    2.2139,    2.4684,    2.6943,    2.8537,    2.7849,    2.2597,    1.9789,  999.0000,  999.0000,  999.0000,  999.0000,    2.6981,    3.2258,    4.2030,    4.7863,    4.9633,    4.9149,    4.6618,    4.0973,  999.0000,    3.1625,    2.3506,    1.5386,    1.2860,    0.6404,    1.1686,    1.2533,    2.0521,    3.2257,    3.5467,    3.6140,    3.9294,    4.3223,    4.7366,    4.2068,    3.5207,    3.4342,    3.4606,    3.3810,    3.4556,    3.5733,    3.6884,    3.8033,    4.0130,    4.2275,    4.7019,    5.1778,    5.6951,    6.0394,    5.4674,    4.7382,    4.4943,    4.3139,    4.6396,    4.9114,    4.8599,    4.8743,    5.1998,
  7-AUG-2000 20:09:46.00,   -0.2247,    0.5628,    1.4771,    2.2819,    2.6651,    2.8557,    2.4300,    2.0955,    2.0078,    2.0272,    2.2950,    2.4855,  999.0000,  999.0000,  999.0000,  999.0000,  999.0000,  999.0000,    2.7389,    3.1438,    3.9806,    4.5942,    4.9774,    4.8137,  999.0000,  999.0000,    2.8322,    2.7246,    2.3551,    1.9856,    1.9328,  999.0000,  999.0000,  999.0000,    2.3964,    2.9020,    3.2619,    3.5677,    4.0929,    4.6867,    4.7369,    4.6456,    4.7247,    4.8399,    4.4077,    3.8843,    3.4519,    3.0308,    3.0508,    3.1087,    3.3093,    3.5169,    3.8158,    4.1074,    4.1508,    3.6666,    3.1910,    2.9576,    2.8329,    2.8200,    3.7002,    4.5421,    5.1544,    5.6829,    5.8156,
  7-AUG-2000 20:14:50.00,   -0.2609,    0.3054,    0.6858,    1.0329,    1.2524,    1.3864,    1.2475,    1.0919,    0.8915,    0.6999,    0.5287,    0.5642,  999.0000,  999.0000,  999.0000,  999.0000,  999.0000,  999.0000,    3.7029,    4.0263,  999.0000,  999.0000,  999.0000,  999.0000,    4.9113,    4.4627,  999.0000,  999.0000,    1.6165,    0.4961,   -0.7298,   -4.9072,   -3.0817,  999.0000,  999.0000,    2.5563,    3.4948,    4.0790,    4.6124,    5.1300,    4.8316,    4.3209,    4.0129,    4.1478,    4.7550,    5.4410,    5.2107,    4.8659,    4.4308,    3.9707,    4.0380,    4.1321,    4.3011,    4.4680,    4.4345,    4.3796,    3.8970,    3.4437,    3.3307,    3.3156,    4.0827,    4.8325,    5.4788,    6.0233,    6.0873,
  7-AUG-2000 20:19:54.00,    0.5078,    0.9183,    1.3952,    1.8054,    1.9590,    2.0496,    1.9384,    1.7095,    1.1624,    0.8430,    1.0507,    1.4047,  999.0000,  999.0000,  999.0000,  999.0000,    4.6353,    5.0552,  999.0000,  999.0000,  999.0000,  999.0000,    5.6477,    5.2517,    4.3886,    3.2157,    1.7952,    1.8247,    1.6309,    1.5384,    1.1911,    0.6973,    0.5935,    0.6849,    0.9917,    1.3916,    1.3555,    1.1583,    1.9103,    2.9590,    4.2186,    5.5330,    6.5947,    6.8627,    7.1684,    6.2679,    5.1927,    4.8180,    4.5166,    4.0541,    4.1742,    4.3486,    4.7967,    5.2441,    5.3728,    5.4974,    5.5392,    5.5526,    5.2365,    4.9894,    5.2938,    5.6090,    5.9887,    6.4431,    7.2504,
  7-AUG-2000 20:24:58.00,   -0.0593,    0.7214,    1.0432,    1.2763,    1.1680,    1.2298,    1.8354,    2.0387,    1.1536,    0.7359,  999.0000,  999.0000,  999.0000,  999.0000,  999.0000,  999.0000,  999.0000,  999.0000,  999.0000,  999.0000,    8.0391,    7.6509,    6.1777,    5.2497,    4.8166,    5.5684,    4.2292,    2.9744,    2.3942,    2.2581,    1.8741,    1.3476,    1.1797,    1.1911,    1.6086,    2.2015,    2.6143,    2.9605,    3.2917,    3.6182,    3.8246,    3.9998,    4.4553,    4.9701,    5.5423,    6.1240,    6.3547,    6.5028,    5.4593,    4.4415,    4.2505,    4.1008,    4.6937,    5.2908,    5.4136,    5.5402,    5.7395,    5.9028,    5.6496,    5.4400,    5.5783,    5.7979,    6.5047,    7.1213,    7.3122,
  7-AUG-2000 20:30:02.00,  999.0000,   -0.3054,    0.5343,    1.1633,    0.9819,    0.7841,    0.5339,    0.5102,  999.0000,  999.0000,  999.0000,  999.0000,  999.0000,  999.0000,  999.0000,  999.0000,  999.0000,  999.0000,    6.9873,    7.4977,    7.9161,    7.4429,    6.0502,    5.1677,    2.2593,    2.0267,    2.3252,    3.1161,    3.1269,    2.7009,    2.4042,    2.1817,    1.9262,    1.7315,    1.8141,    1.8256,    2.1150,    2.6072,    3.0512,    3.4663,    3.5090,    3.4257,    3.9165,    4.5288,    5.1705,    5.8171,    6.1904,    5.7885,    5.3569,    5.2365,    4.5809,    3.9009,    4.6118,    5.3342,    5.3962,    5.4305,    4.9126,    4.4355,    4.4320,    4.4927,    5.0653,    5.6806,    6.5522,    7.2380,    7.0469,
  7-AUG-2000 20:35:07.00,  999.0000,  999.0000,  999.0000,  999.0000,  999.0000,  999.0000,    0.3362,    0.4754,  999.0000,  999.0000,    1.2149,    1.6632,  999.0000,  999.0000,  999.0000,  999.0000,    5.9203,    6.7723,    7.6252,    7.5423,    6.3632,    5.6435,  999.0000,  999.0000,    4.9062,    4.3027,    3.4132,    3.2634,    2.8784,    2.4933,    2.1809,    1.9107,    1.6147,    2.0141,  999.0000,    0.9651,    1.3465,    2.6256,    3.1420,    3.2798,    3.5556,    3.8525,    3.7770,    3.9918,    4.5001,    5.0902,    5.8793,    5.3798,    4.7639,    4.8426,    4.1216,    3.3711,    3.5211,    3.6850,    3.8103,    3.9198,    3.7138,    3.5445,    3.8007,    4.1174,    4.9180,    5.6849,    6.2500,    6.8098,    7.3446,
  7-AUG-2000 20:40:11.00,  999.0000,   -0.8258,   -1.2676,   -1.5485,   -1.2105,   -1.0402,   -1.4059,   -1.6240,   -1.4425,   -1.5229,   -2.2090,   -2.3285,  999.0000,  999.0000,  999.0000,  999.0000,    2.7356,    3.5613,    4.1377,    4.6407,    5.0576,    4.9978,    4.4462,    3.9526,  999.0000,  999.0000,    2.6294,    2.3512,    2.0297,    1.8334,    1.7804,    3.0578,    3.4689,    3.6292,    3.6731,    2.4621,    2.6612,    2.8768,    3.3051,    3.7998,  999.0000,  999.0000,    5.4866,    5.1957,    5.7332,    6.4226,    6.4320,    6.3766,    5.8347,    5.2510,    4.7276,    4.2072,    4.0531,    3.9102,    3.9313,    4.1010,    3.4462,    3.1541,    3.7114,    4.3300,    5.4382,    6.4382,    6.7899,    7.1925,    7.8355,
  7-AUG-2000 20:45:16.00,  999.0000,    1.0345,    0.0997,   -0.5289,    0.0197,    0.4530,  999.0000,  999.0000,    0.6461,    0.8099,  999.0000,  999.0000,  999.0000,  999.0000,    2.7800,    3.0716,    3.2077,    3.6159,    4.3869,    5.0683,    5.6447,    5.7702,    5.4308,    4.8944,    4.1790,    3.5059,    2.8666,    1.8234,    1.7959,    3.3248,    2.9562,    2.0048,    2.0710,    2.0945,    2.1582,    2.2392,    2.4745,    2.7668,    3.0422,    3.3122,    3.8907,    4.5494,    4.7803,    5.7608,    6.8683,    6.4643,    6.5704,    6.6215,    6.3905,    6.1352,    5.4483,    4.7399,    4.4945,    4.2592,    4.1304,    4.3498,    4.5681,    3.9418,    4.2034,    4.5760,    6.1392,    7.3005,    7.6248,    7.7634,    7.6120,
  7-AUG-2000 20:50:20.00,   -0.2726,   -0.1702,   -0.4686,   -0.6451,   -0.3525,   -0.1115,   -0.0354,   -0.0529,  999.0000,  999.0000,   -0.8648,   -0.6505,    0.5330,    1.7069,    2.8640,    3.2284,    2.3887,    2.2078,  999.0000,  999.0000,  999.0000,  999.0000,    5.6920,    5.8236,  999.0000,    6.2814,    5.6348,    4.9247,    4.1599,    3.3591,    3.0872,    3.1195,    3.2096,    3.3287,    3.5170,    3.7352,    3.3568,    2.4904,    2.6172,    3.0154,    3.3696,    3.7800,    3.8700,    3.9128,    4.6900,    5.5896,    5.7386,    5.7937,    5.0685,    4.2760,    3.6822,    3.0983,    3.1302,    3.1698,    3.0819,    2.9880,    2.7772,    2.5928,    2.3503,    2.5578,    5.8736,    6.3900,    6.8346,    7.1503,    7.2754,
  7-AUG-2000 20:55:26.00,   -0.3772,    0.2460,   -0.0437,   -0.1754,    0.3001,    0.6455,    0.5753,    0.4064,   -0.0296,   -0.2956,  999.0000,  999.0000,    0.0862,    0.4146,  999.0000,  999.0000,  999.0000,  999.0000,    3.8037,    4.5022,    5.2249,    5.4074,    5.0329,    4.8650,    4.1176,    5.2875,    5.9001,    6.0946,    5.9223,    5.5086,    4.7896,    3.8948,    3.6311,    3.6829,    4.1176,    4.7177,    4.7541,    3.7207,    3.7792,    4.0232,    4.3202,    4.7988,    4.8802,    4.9780,    5.3987,    5.8732,    6.4027,    6.6984,    6.4593,    6.0398,    5.0787,    4.0807,    4.2027,    4.3389,    4.2500,    4.1589,    4.0230,    3.9228,    4.4024,    5.3621,    6.2312,    6.4814,    6.6143,    6.1286,    5.8495,
  7-AUG-2000 21:00:30.00,   -0.3500,    0.1923,    0.0899,   -0.0850,   -0.5385,   -0.9767,   -1.3658,   -1.4797,  999.0000,  999.0000,    0.4119,    0.6604,    0.1455,   -0.0302,    0.3838,    0.6869,    0.8215,    1.2258,    1.9894,    2.6419,    3.1642,    3.7171,  999.0000,  999.0000,    3.8006,    5.2740,    6.0391,    6.3554,    5.8239,    4.7345,    3.9889,    3.4411,    3.7159,    4.4022,    4.9807,    5.5125,    4.9764,    4.0455,    4.2912,    4.9046,    5.0121,    4.9880,    4.9739,    4.9620,    4.7144,    4.4276,    4.4572,    4.3390,    4.1957,    4.4608,    3.4835,    2.5691,    2.7149,    2.9253,    2.8949,    2.8535,    2.5909,    2.3705,    2.6394,    3.0676,    4.7685,    6.3282,    7.0417,    7.6065,    7.4692,
  7-AUG-2000 21:05:34.00,    0.0032,    0.0690,   -0.1621,   -0.4387,  999.0000,  999.0000,   -1.7926,   -1.8855,   -1.0093,   -0.3444,   -0.1688,   -0.0855,   -0.1864,   -0.2126,   -0.1087,    0.1984,    0.8143,    1.3869,    1.9019,    2.5172,    3.2502,    3.9320,    4.5610,    5.0720,    5.4758,    5.0047,    5.7700,    6.5353,    6.3994,    5.6703,    5.4046,    5.4055,    5.3239,    5.2010,    5.3192,    5.5416,    5.3501,    5.0055,    4.8207,    4.6859,    4.4940,    4.2873,    4.1469,    4.0205,    4.2952,    4.6367,    4.6971,    4.7223,    4.3995,    4.0467,    3.9130,    4.0206,    4.1464,    3.4493,    3.6377,    3.8099,    3.6590,    3.6023,    4.6386,    5.6813,    6.7749,    7.7907,    8.3403,    8.7931,    8.7894,
  7-AUG-2000 21:10:39.00,  999.0000,  999.0000,  999.0000,  999.0000,   -0.0220,   -0.0482,   -0.4680,   -0.6642,  999.0000,  999.0000,    0.5625,    0.7897,    0.6536,    0.6089,  999.0000,  999.0000,    0.9512,    1.2623,    1.8358,    2.2543,  999.0000,  999.0000,    2.9653,    3.4645,    4.2018,    3.6162,    4.1726,    4.8252,    5.1701,    5.4809,    5.1708,    4.5035,    4.0280,    3.6484,    3.7346,    4.0221,    3.4842,    2.5023,    2.5490,    2.8835,    2.8447,    2.7304,    2.7205,    2.7327,    2.9498,    3.2241,    3.3661,    3.2883,    3.0338,    2.7533,    2.7778,    2.8175,    3.2311,    3.5591,    4.2899,    5.0160,    5.6502,    6.2314,    6.3684,    6.2499,    6.9434,    7.5697,    7.7930,    8.0237,    8.2885,
  7-AUG-2000 21:15:43.00,    0.4115,    0.6583,  999.0000,  999.0000,   -0.9919,   -1.4541,   -1.6355,   -1.6183,   -1.0638,   -0.6175,  999.0000,  999.0000,  999.0000,  999.0000,    0.3627,    0.6005,    0.9019,    1.2785,    1.7554,    1.8854,    1.6089,    1.7933,  999.0000,  999.0000,  999.0000,  999.0000,    5.0922,    6.3866,    6.2009,    5.9764,    5.5086,    4.9010,    4.6324,    4.5335,    4.4432,    4.3565,    4.0954,  999.0000,    3.3535,    3.2761,    3.3464,    3.5701,    3.5532,    3.5001,    3.3091,    3.4349,    3.5929,    3.7949,    3.5314,    3.2334,    2.9778,    2.7244,    3.3316,    3.5700,    3.8126,    4.1798,    4.5494,    4.9531,    5.3964,    5.7696,    6.1734,    6.6287,    7.3930,    8.0547,    8.2313,
  7-AUG-2000 21:20:47.00,  999.0000,  999.0000,  999.0000,  999.0000,  999.0000,  999.0000,  999.0000,  999.0000,  999.0000,  999.0000,  999.0000,  999.0000,  999.0000,  999.0000,  999.0000,  999.0000,  999.0000,  999.0000,  999.0000,  999.0000,    3.3921,    4.1070,    5.4485,    5.8992,    5.5408,    5.0899,    5.9610,    6.9570,    7.3798,    7.6005,    7.3353,    6.7906,    6.2630,    5.7440,    5.1890,    4.6184,    4.0436,    3.4672,    3.5324,    3.7210,    4.3252,    4.3193,    4.2748,    4.1658,    3.9998,    4.2376,    4.9848,    6.1538,    5.6841,    5.1032,    4.2989,    3.4834,    4.1826,    4.8944,    4.6517,    4.6137,    4.8148,    5.3186,    6.4923,    6.5450,    6.5698,    6.4045,    6.4152,    7.3544,    8.1555,
  7-AUG-2000 21:25:51.00,  999.0000,   -1.0298,   -1.0898,   -1.1096,  999.0000,  999.0000,   -0.7058,   -0.6834,  999.0000,  999.0000,   -1.5260,   -1.6708,   -1.5435,   -1.1863,  999.0000,  999.0000,  999.0000,  999.0000,  999.0000,  999.0000,  999.0000,  999.0000,    5.6260,    6.0752,    6.2449,    6.3289,  999.0000,    7.3374,    7.6190,    7.8203,    7.2379,    6.2048,    5.5912,    5.1874,    4.9082,    4.6827,    3.9867,    3.1168,    3.1405,    3.4435,    3.9674,    4.2635,    4.6380,    4.5984,  999.0000,  999.0000,  999.0000,    6.4321,    5.9394,    4.8815,    4.1442,    3.0386,    3.7677,    4.5152,    5.6608,  999.0000,  999.0000,    6.3846,    6.9133,    7.3615,    7.1675,    6.9801,    6.8319,    6.8080,    7.3708,
  7-AUG-2000 21:30:55.00,  999.0000,  999.0000,  999.0000,  999.0000,   -0.0958,   -0.2846,  999.0000,  999.0000,   -0.9320,   -1.0990,   -1.1531,   -1.2877,   -1.5832,   -1.5509,  999.0000,  999.0000,  999.0000,  999.0000,  999.0000,  999.0000,    2.6630,    3.2978,    3.9663,    4.3438,  999.0000,    3.8414,    5.1873,    6.6186,    7.1048,    7.1728,    6.6261,    5.7258,    4.8245,    3.9226,    3.6465,    3.6409,    3.2464,    2.7081,    2.5820,    2.3800,  999.0000,  999.0000,    1.9790,    2.3460,    3.0833,    3.9462,    4.0662,    4.0934,  999.0000,  999.0000,    1.3044,    1.2093,    1.8921,    2.8712,    3.4612,    4.0407,    4.4117,    4.7761,    5.0631,    5.3038,    5.1742,    5.1052,    5.3988,    5.7569,    6.4191,
  7-AUG-2000 21:36:00.00,   -1.2898,   -0.6900,   -0.8158,   -0.8220,   -0.3685,   -0.1927,   -0.9052,   -1.1646,   -0.1991,    0.4208,    0.2409,    0.1585,    0.2711,    0.3875,    0.5104,    1.2960,    3.0881,    4.1412,    4.2100,    4.3367,  999.0000,  999.0000,  999.0000,  999.0000,    5.3095,    5.6667,    6.1539,    6.8174,    6.8323,    6.8472,    6.6949,    6.4463,    5.7701,    4.8801,    4.6046,    4.5947,    4.6342,    4.6920,    4.4830,    3.4529,  999.0000,    3.6981,    3.8896,    4.1726,    4.8574,    5.7677,    6.3121,    6.6568,    5.6868,  999.0000,  999.0000,  999.0000,  999.0000,    4.5287,    5.6870,    6.7858,    6.6964,    6.6159,    6.6385,    6.6202,    6.2747,    5.9876,    5.8994,    6.0331,    6.9816,
  7-AUG-2000 21:41:04.00,  999.0000,  999.0000,  999.0000,  999.0000,    0.6625,    0.7973,    0.3731,    0.1001,    0.2361,    0.3430,    0.3825,    0.3152,    0.0343,   -0.2466,   -0.5274,   -0.3408,    0.5560,    1.0839,  999.0000,  999.0000,    1.1937,    1.6191,    2.4457,    3.2584,  999.0000,  999.0000,    5.6591,    6.3311,    7.1216,    7.6906,    7.7459,    7.4660,    6.4825,    5.1471,    4.5991,    4.3914,    4.3240,    4.3085,    3.9300,    3.4381,    3.2085,    3.0470,    3.1448,    3.2974,  999.0000,  999.0000,  999.0000,    4.8825,    4.7838,    4.6515,    3.9631,    3.2469,    3.2867,    3.3490,    4.0513,    4.7536,    5.4558,    6.0972,    6.0349,    5.9355,    5.5398,    5.2831,    5.5061,  999.0000,  999.0000,
  7-AUG-2000 21:46:08.00,   -1.9316,   -1.9503,   -1.4280,   -0.9990,   -0.9288,   -0.9471,   -1.2485,   -1.3773,   -1.0393,   -0.6833,   -0.2854,   -0.1182,   -0.4123,   -0.8372,   -1.4897,   -1.5933,  999.0000,  999.0000,  999.0000,  999.0000,    2.0567,    2.3647,    2.2374,    2.3462,    2.6696,    3.2547,    4.0491,    4.6947,    5.2360,    6.2129,    6.1082,    5.9537,    5.1288,    3.9687,    3.5603,    3.4767,    3.3647,    3.2423,    2.8150,    2.2923,    2.0798,    1.9479,    1.9822,    2.0516,    3.3206,    4.7894,    5.1078,    5.2825,    4.7577,    4.1727,    3.5672,    2.9607,    2.9526,    2.9654,    3.6727,    4.3497,    4.4213,    4.4989,    4.6459,    4.7669,    4.6791,    4.6040,    4.6046,    4.6903,    5.1780,
  7-AUG-2000 21:51:12.00,   -1.1882,   -0.7849,    0.2933,    1.2830,    1.9325,    2.3501,  999.0000,  999.0000,  999.0000,  999.0000,  999.0000,  999.0000,    0.0792,    0.1364,  999.0000,  999.0000,  999.0000,  999.0000,    3.7376,    4.0140,  999.0000,  999.0000,    3.2833,    3.5503,  999.0000,  999.0000,    5.7425,    5.2793,    5.9339,    6.5885,    6.7950,    6.7438,    6.0342,    4.9953,    4.5929,    4.4654,    4.5390,    4.6869,    4.4647,    4.1269,    4.3945,    4.5721,    4.9660,    5.1366,    6.1681,    7.3108,    7.6498,    7.8882,    7.0650,    6.1504,    5.2330,    4.3155,    4.2754,    4.2546,    4.7088,    4.9448,    5.2153,    5.5000,    5.9891,    6.4191,    6.3771,    6.2522,    5.6306,    5.2781,    6.4414,
  7-AUG-2000 21:56:16.00,   -1.4542,   -0.9547,    0.1074,    0.8907,  999.0000,  999.0000,  999.0000,  999.0000,   -0.5503,   -0.7626,   -0.7991,   -0.7806,   -0.6518,   -0.6150,   -0.7379,   -0.4952,  999.0000,  999.0000,    1.8989,    1.8875,    0.9278,    0.9360,  999.0000,  999.0000,    3.9555,    4.6246,    5.0239,    4.7366,    4.9030,    5.0694,    5.2206,    5.3630,    4.7295,    3.7077,    3.6024,    3.8929,    3.9669,    3.9609,    3.1512,    2.0903,    1.9781,  999.0000,  999.0000,    3.1394,    4.5256,    6.0713,    6.4307,    6.6419,    5.8920,    5.0593,    4.0027,    2.9349,    3.1751,    3.4392,    4.8874,    5.2780,    5.6386,    5.2621,    5.4597,    5.6479,    5.7615,    5.7779,    5.2119,    4.8860,  999.0000,
  7-AUG-2000 22:01:21.00,   -0.8702,   -0.6078,    0.3138,    1.0313,    0.9640,    0.7225,   -0.0762,   -0.6953,   -0.8284,   -0.9077,   -0.8624,   -0.9702,   -1.3842,   -1.6935,   -1.8208,   -1.6021,  999.0000,  999.0000,  999.0000,  999.0000,    2.1186,    2.7795,    3.3544,    3.8731,  999.0000,  999.0000,  999.0000,    4.6490,    5.2628,    5.8765,    6.2553,    6.4988,    5.8549,    4.7671,    4.2801,    4.0526,    3.9610,    3.9197,    3.1995,    2.0846,    1.7803,    1.8921,    2.7189,    3.7422,    4.7337,    5.7199,    6.3756,    6.4693,    6.3658,    6.2452,    5.2967,    4.3067,    4.4900,    4.4136,    4.4845,    4.5608,    4.7462,    4.9364,    5.1834,    5.4858,    6.2310,    6.8555,    6.7566,    6.7399,    7.1115,
  7-AUG-2000 22:06:25.00,   -0.6708,   -0.4282,    0.1862,    0.5950,    0.2131,   -0.1854,   -0.6375,   -0.8897,   -0.6015,   -0.3517,   -0.1908,   -0.1503,   -0.3508,   -0.5683,   -0.8155,   -0.7251,  999.0000,  999.0000,  999.0000,  999.0000,    2.2910,    2.8205,    3.2740,    3.7505,  999.0000,  999.0000,    5.2427,    4.6024,    5.2158,    5.7988,    6.0655,    6.1502,    5.5896,    4.7064,    4.6508,    4.9526,    4.9180,    4.7591,    4.2984,    2.8804,    2.8965,    2.6704,    2.8885,    3.5003,    3.9472,    4.4091,  999.0000,  999.0000,  999.0000,  999.0000,  999.0000,  999.0000,  999.0000,    3.2475,    3.6847,    4.1093,    4.2816,    4.4528,    4.2269,    4.4292,    5.2408,    6.1040,    5.7626,    5.5452,    5.9128,
  7-AUG-2000 22:11:29.00,   -1.0344,   -1.0290,  999.0000,  999.0000,  999.0000,  999.0000,  999.0000,  999.0000,   -0.9547,   -0.9906,   -1.1339,   -1.3671,   -1.7796,   -1.8620,  999.0000,  999.0000,  999.0000,  999.0000,  999.0000,  999.0000,  999.0000,  999.0000,    2.5619,    3.0174,    3.4402,    3.6909,    4.2232,    5.0581,    5.2812,    5.3465,    5.4804,    5.6538,    5.1570,    4.3249,    4.2418,    4.4822,    4.4481,    4.3125,    3.8384,    3.3484,  999.0000,  999.0000,  999.0000,    4.3362,    5.5360,    6.8710,    7.4047,    7.8381,    7.6619,    7.4332,    6.2658,    5.0514,    4.8104,    4.5983,    5.1985,    5.7876,    6.1554,    6.4917,    6.6340,    6.4526,    6.3686,    6.7349,    7.1086,    7.4951,    7.9421,
  7-AUG-2000 22:16:33.00,   -0.8349,   -0.6735,    0.1194,    0.7323,    0.6533,    0.4255,   -0.2781,   -0.7460,   -0.5763,   -0.4115,   -0.2579,   -0.0062,    0.4415,    0.5984,    0.2503,    0.1501,    0.4266,    0.9050,    1.6526,    2.2412,    2.6435,    2.9485,    3.1533,    3.4295,  999.0000,  999.0000,  999.0000,    5.5556,    5.5555,    5.1570,    5.1828,    5.2198,    4.8838,    4.5195,    4.2630,    4.1183,    3.7331,    3.2279,    2.8495,    3.1105,    2.9042,    2.0017,    2.3844,    2.9145,    3.9034,    4.9688,    5.5166,    5.9997,    6.3618,    6.7136,    5.7852,    4.7929,    4.2838,    3.8082,    4.9200,    5.9528,    5.4088,    4.8842,    4.5849,    4.3761,    4.8905,    5.3864,    5.7722,    6.2242,    6.9888,
  7-AUG-2000 22:21:37.00,   -0.9942,   -0.8283,  999.0000,  999.0000,    1.0677,    1.3881,    0.7123,    0.2117,    0.1854,    0.2297,    0.4374,    0.4939,    0.2481,    0.0638,   -0.0137,    0.1602,    0.7161,    1.0812,  999.0000,  999.0000,  999.0000,  999.0000,  999.0000,  999.0000,    1.8569,    2.1589,    2.5315,  999.0000,  999.0000,    3.3495,    3.2658,    3.0273,    2.9749,  999.0000,    3.1937,    3.3945,    3.3205,  999.0000,  999.0000,    2.7177,    2.4020,    2.0591,    2.3670,    2.8126,    3.5670,    4.3730,    4.5654,    4.6811,    4.9403,    5.2119,    4.0740,    2.8657,    2.6504,    2.4716,    3.5566,    4.5776,    4.3197,    4.1179,    4.5662,    5.0307,    5.6243,    6.1550,    6.3090,    6.5621,    7.2834,
  7-AUG-2000 22:26:41.00,  999.0000,  999.0000,  999.0000,  999.0000,  999.0000,  999.0000,  999.0000,  999.0000,  999.0000,  999.0000,  999.0000,  999.0000,   -0.0998,    0.0156,  999.0000,  999.0000,  999.0000,  999.0000,  999.0000,  999.0000,  999.0000,  999.0000,    1.5350,    1.9450,    2.5741,    2.5879,    3.5968,    4.6366,    5.0468,    5.0425,    4.8157,    4.4609,    3.9886,    3.4574,    3.2942,    3.0550,    2.6117,    3.1389,    2.6890,    2.1256,    1.9329,    1.8366,    2.7349,    3.8436,    5.1284,    6.4426,    6.6056,    6.6248,    6.8243,    7.0394,    6.2285,    5.3664,    5.2858,    5.2287,    5.8477,    6.4397,    6.4943,    6.5578,    6.7251,    6.9106,    7.2424,    7.5195,    7.4696,    7.5634,    8.3362,
  7-AUG-2000 22:31:47.00,   -1.4974,   -1.5243,  999.0000,  999.0000,   -0.3064,    0.0112,    0.0464,    0.0661,    0.0441,   -0.0436,   -0.2835,   -0.3444,   -0.0474,    0.3009,  999.0000,  999.0000,  999.0000,  999.0000,    2.4879,    2.8159,  999.0000,  999.0000,    3.4149,    3.6912,    3.4535,    3.7298,    4.1630,    4.6707,    5.0144,    5.3679,    5.1911,    4.7232,    4.5953,    4.5670,    4.5684,    4.6107,    4.2676,    3.7886,    3.5778,    3.4508,    3.5590,    3.7285,    4.3779,    5.1290,    6.3695,    7.6916,    7.7741,    7.7017,    7.2926,    6.7913,    5.3034,    3.7662,    3.4967,    3.2668,    4.2182,    4.9908,    5.2124,    5.4352,    5.6724,    5.9079,    6.1301,    6.3392,    6.4698,    6.7946,    8.0363,
  7-AUG-2000 22:36:51.00,  999.0000,  999.0000,  999.0000,  999.0000,  999.0000,  999.0000,   -1.0948,   -0.9403,   -0.8715,   -0.9453,   -1.3491,   -1.5382,   -1.2983,   -1.0347,  999.0000,  999.0000,  999.0000,  999.0000,    0.4892,    0.9346,    1.5446,    1.8637,    1.8827,    2.0420,    2.3288,    2.9676,    3.8878,    4.3668,    4.5981,    4.5524,    4.1574,    5.1410,    5.2572,    4.8736,    5.5085,    5.6360,    5.4128,    5.0543,    4.8687,    4.7370,    4.7045,    4.6979,    5.3156,    6.0653,    7.1758,    8.3464,    8.0295,    7.5268,  999.0000,  999.0000,    3.0940,    3.0891,    3.1215,    3.6862,    4.2378,    4.4447,    4.9424,    5.3611,    4.8644,    4.4478,    4.6707,    4.9891,    5.8801,    6.7703,    7.6562,
  7-AUG-2000 22:41:55.00,   -1.0133,   -0.9684,  999.0000,  999.0000,  999.0000,  999.0000,  999.0000,  999.0000,   -0.4282,   -0.3193,  999.0000,  999.0000,  999.0000,  999.0000,    0.5926,    0.5823,    0.2795,    0.3944,  999.0000,  999.0000,    2.4089,    2.7801,    2.8415,    3.0869,    3.4995,    4.0454,    4.6979,    4.7507,    5.2351,    5.8513,    5.9739,    5.8897,    5.8212,    5.7606,    5.9019,    6.1306,    5.7653,    5.1805,    4.9159,    4.7514,    4.9669,    5.2811,    5.4862,    5.6682,    6.5839,    7.6219,    7.7265,    7.7145,    7.3153,    6.8828,    5.3794,    3.8227,    3.6721,    3.8584,    4.4796,    5.3618,    5.3673,    5.3562,    5.1531,    5.0700,    5.9449,    6.6929,    6.6805,    6.8511,    7.7532,
  7-AUG-2000 22:47:00.00,   -1.0799,   -0.8862,   -0.3712,    0.0021,   -0.1691,   -0.3563,   -0.5947,   -0.8349,  999.0000,  999.0000,   -1.5701,   -1.5817,   -1.1267,   -0.6669,   -0.1988,    0.2761,  999.0000,  999.0000,  999.0000,  999.0000,    2.7022,    2.9326,    2.9005,    3.3003,  999.0000,    4.8181,    5.0695,    6.0095,    6.0198,    5.7697,    5.6415,    5.1075,    4.8342,    4.5640,    4.6521,    4.9942,    4.6369,    4.1526,    3.9021,    3.7193,    4.2555,    4.9786,    5.1771,    5.2647,    5.9591,    6.7547,    6.8427,    6.8422,    6.5056,    6.1401,    5.2224,    4.2772,  999.0000,  999.0000,  999.0000,    5.7541,    6.0385,    6.2572,    5.8860,    5.4533,    6.3165,    6.8015,    7.0978,    7.4501,  999.0000,
  7-AUG-2000 22:52:05.00,   -0.5099,   -0.8375,  999.0000,  999.0000,    0.1082,    0.1986,   -0.4305,   -0.8885,  999.0000,  999.0000,  999.0000,  999.0000,   -0.8666,   -0.7420,   -0.4084,   -0.0428,  999.0000,  999.0000,  999.0000,  999.0000,    2.0297,    2.2891,    2.3886,    2.7787,    3.4326,    3.9670,    4.4059,    4.2977,    4.3049,    5.0563,  999.0000,    4.0232,    3.8604,    3.6941,    3.6434,  999.0000,  999.0000,    3.5461,    3.4252,    3.2840,    3.8042,    4.4964,    5.0175,    5.5025,    5.8879,    6.2568,    6.1124,    5.9039,    5.4972,    5.0735,    3.7938,    2.4715,    2.3488,    2.5190,    3.0832,    3.9940,    4.6679,    5.2922,  999.0000,  999.0000,  999.0000,    5.5654,    5.6615,    5.9784,    7.3375,
  7-AUG-2000 22:57:09.00,   -1.4563,   -1.7261,  999.0000,  999.0000,  999.0000,  999.0000,  999.0000,  999.0000,  999.0000,  999.0000,   -0.7571,   -0.6609,   -0.5878,   -0.7080,   -1.1645,   -1.1627,   -0.4648,    0.1903,    0.7887,    1.4456,    2.1712,    2.6059,    2.7405,    2.9924,    3.3508,    3.0320,    3.8255,    4.5402,    5.0773,    5.4584,    5.3366,    5.1088,    4.8053,    4.5064,    4.1957,    3.8801,    3.3617,    2.7684,    2.7906,    3.0052,    3.8336,    4.8216,    5.6052,    6.5522,    7.3456,    8.1273,    8.5811,    8.9972,    8.5567,    8.0425,    6.5746,    5.0590,    4.9872,  999.0000,  999.0000,    6.3756,    6.4971,    6.6202,    6.7620,    6.9383,    7.3909,    7.7968,    7.9231,    8.1763,    9.0293,
  7-AUG-2000 23:02:14.00,  999.0000,   -1.3342,   -0.2195,    0.6078,    0.3298,    0.0344,   -0.3167,   -0.4371,    0.0661,    0.3217,    0.0043,   -0.1771,   -0.0864,    0.0770,  999.0000,  999.0000,  999.0000,  999.0000,    1.5253,    1.8089,  999.0000,  999.0000,  999.0000,  999.0000,    3.1914,    3.7053,    4.4090,    4.0218,    4.4597,    5.1413,  999.0000,    5.9257,    6.2508,    6.4729,    6.2688,    5.8804,    5.5569,    5.2573,    5.2068,    5.2679,    5.8195,    6.5411,    8.0194,    8.2725,    8.4744,    8.2823,    8.4072,    8.5003,    8.2108,    7.8883,    6.3210,    4.6914,    4.9148,    5.1649,    5.2374,    5.3550,    6.3730,    7.3428,    7.7544,    8.2611,    9.5277,   10.5360,    9.9972,    9.5489,    9.5288,
  7-AUG-2000 23:07:18.00,   -0.9675,   -1.3046,   -0.4488,    0.2020,    0.0644,   -0.1372,   -0.5439,   -0.8410,  999.0000,  999.0000,   -0.8432,   -0.8168,   -0.7364,   -0.5937,  999.0000,  999.0000,  999.0000,  999.0000,    0.6595,    1.2656,    2.2882,    2.5834,    2.1284,    2.2922,  999.0000,  999.0000,    4.4690,    4.2579,    4.3172,    4.3351,    4.6786,    5.2095,    5.6803,    6.1211,    5.7887,    5.1223,    4.6806,    4.1277,    4.5180,    5.8832,    7.1384,    6.4364,    7.0719,    7.7088,    7.9540,    8.1340,    8.1044,    8.0486,    7.1731,    6.2270,    4.7729,    3.2934,    3.3548,    3.4486,    4.0197,    4.5985,    5.3318,    6.0368,    6.4149,    6.8178,    7.4185,    8.0521,    8.8831,    9.5709,    9.6322,
  7-AUG-2000 23:12:22.00,  999.0000,  999.0000,  999.0000,  999.0000,  999.0000,  999.0000,  999.0000,  999.0000,    1.0258,    1.0121,  999.0000,  999.0000,  999.0000,  999.0000,  999.0000,  999.0000,  999.0000,  999.0000,  999.0000,  999.0000,    3.0585,    3.0406,    2.8124,    2.7773,    2.9178,    2.6281,    3.3809,    4.0895,    4.5040,    4.7680,    5.0341,    5.3330,    5.7638,    6.2608,    6.1297,    5.7274,    5.5813,    5.0774,  999.0000,    5.4274,    5.7736,    6.2231,    6.5287,    6.8037,    6.9380,    7.0489,    7.0916,    7.1258,    6.3716,    5.5496,    4.2293,    2.8842,    2.7062,    2.6894,    3.1782,    3.7535,    4.3717,    5.0509,    6.4358,    7.6583,    7.5840,    7.5662,    7.8869,    8.2694,  999.0000,
  7-AUG-2000 23:17:26.00,   -0.7252,   -1.0109,  999.0000,  999.0000,  999.0000,  999.0000,   -1.7594,   -1.8362,  999.0000,  999.0000,  999.0000,  999.0000,  999.0000,  999.0000,   -0.9940,   -1.0637,   -1.4221,   -1.2963,   -0.5253,    0.1176,  999.0000,  999.0000,  999.0000,  999.0000,    2.5827,    3.3087,    3.8104,    4.5827,  999.0000,    5.2511,    5.5187,    5.6894,    5.6491,    5.5035,    5.5424,    5.6416,    5.5755,    5.0697,    5.0492,    5.2910,    5.4265,    5.6251,    5.7479,    5.8546,    5.6732,    5.4439,    5.9096,    6.4621,    6.6128,    6.7288,    5.7158,    4.2826,  999.0000,  999.0000,  999.0000,    4.6245,    5.0460,    5.4735,    5.9696,    6.4815,    7.1203,    7.6852,    7.8066,    8.0603,    8.9381,
  7-AUG-2000 23:22:30.00,  999.0000,  999.0000,  999.0000,  999.0000,    1.4729,    1.8171,  999.0000,  999.0000,  999.0000,  999.0000,  999.0000,  999.0000,   -1.0528,   -1.4851,   -1.9561,   -1.7990,  999.0000,  999.0000,    1.5342,    2.5392,    3.4199,    3.7525,    3.5199,    3.5666,    2.4681,    2.8479,    3.4159,    4.1250,    4.5518,    4.7926,    5.1345,    5.5345,    5.8307,    6.0750,    6.0213,  999.0000,  999.0000,  999.0000,    5.6923,    5.4507,    5.3232,    5.1722,    5.1570,    5.1705,    5.0470,    4.9006,    5.3848,    5.9479,    6.0940,    6.2041,  999.0000,  999.0000,  999.0000,  999.0000,  999.0000,    3.8744,    4.0421,    4.2781,    5.3045,    6.3079,    7.1270,    7.8767,    8.2103,    8.6661,    9.6987,
  7-AUG-2000 23:27:34.00,  999.0000,  999.0000,  999.0000,  999.0000,  999.0000,  999.0000,   -1.7785,   -1.7255,   -1.5894,   -1.4308,   -1.2202,   -1.2071,   -1.5889,   -1.6233,  999.0000,  999.0000,  999.0000,  999.0000,    1.2246,    1.6619,  999.0000,  999.0000,  999.0000,  999.0000,    2.9100,    3.3869,    3.8070,    4.1845,    4.6478,    5.1676,    5.5761,    5.9207,    6.3116,    6.7258,    6.5023,    6.0033,    5.6636,    5.3828,    5.4857,    5.7084,    5.7154,    5.6662,    6.4439,    7.3966,    7.3295,    7.0925,    7.3993,    7.7742,    8.1987,    8.6275,    6.9539,    5.1754,    4.9743,    4.9829,    5.4122,    5.7369,    6.4343,    7.1347,    7.8701,    8.5696,    8.9822,    9.3752,    9.6505,   10.0411,   10.9765,
  7-AUG-2000 23:32:38.00,   -1.3276,   -1.3858,    0.0434,    1.1611,    1.0806,    0.8252,    0.0104,   -0.6457,   -0.8725,   -0.9506,  999.0000,  999.0000,  999.0000,  999.0000,  999.0000,  999.0000,  999.0000,  999.0000,    1.4431,    1.8176,  999.0000,  999.0000,    3.3230,    3.6802,    3.3732,    3.6995,    4.1160,    4.5717,    5.1297,    5.8485,    6.1410,    6.2985,    6.5139,    6.7582,    6.8034,    6.7626,    6.7298,    6.7000,    6.5915,    6.4584,    6.4247,    6.4167,    7.0125,    7.7360,    7.8900,    7.6882,    7.5807,    7.3538,    7.5101,    7.6868,    6.9385,    6.1439,  999.0000,  999.0000,    7.5678,    4.4916,    5.6778,    6.8231,    7.4953,    8.1331,    8.4961,    8.8328,    9.0126,    9.3365,   10.3411,
  7-AUG-2000 23:37:42.00,   -0.7217,   -0.8127,    0.2216,    0.9330,  999.0000,  999.0000,   -0.6557,   -1.0498,   -1.0776,   -1.0503,   -0.8952,   -0.8616,   -1.0708,   -1.4878,   -2.2661,   -2.4421,   -1.7033,   -0.9432,  999.0000,  999.0000,    1.4223,    1.7989,    1.7506,    2.4261,    3.7588,    4.6711,    5.2475,    5.8738,    6.5350,    6.4607,    6.6550,    6.8494,    6.8216,    6.6828,    6.2558,    5.7044,    5.4001,    5.1871,    5.2515,    5.4025,    5.3978,    5.3526,    5.9274,    6.6333,  999.0000,  999.0000,  999.0000,    7.3341,    7.1535,    6.9430,    6.3018,    5.6392,    5.0821,    4.5353,    4.5132,    4.5259,    5.2327,    5.9819,    7.2222,    8.3636,    8.7152,    9.0320,    9.1395,    9.4180,   10.5034,
  7-AUG-2000 23:42:47.00,  999.0000,  999.0000,  999.0000,  999.0000,  999.0000,  999.0000,   -0.5918,   -0.9979,   -1.0682,   -1.1388,   -1.2105,   -1.1451,   -0.8057,   -0.8072,   -1.4012,   -1.4640,  999.0000,  999.0000,    0.7677,    1.3597,    1.7737,    2.2320,  999.0000,  999.0000,    3.7439,    4.2060,    4.6347,    5.6040,    6.9528,    6.7864,    7.2178,    7.6526,    7.5326,    7.1090,    6.5380,    5.7794,    5.3531,    5.2051,    5.5886,    6.1782,    6.6000,    6.9781,    7.4185,    7.8720,    8.0864,    8.2610,    8.4503,    8.6415,    8.5858,    8.5089,    7.6042,    6.8344,    6.2432,    5.6597,    5.3763,    5.1432,    6.1077,    7.2641,    7.8357,    8.3718,    8.6233,    8.9178,    9.1422,    9.7535,   10.9458,
  7-AUG-2000 23:47:51.00,   -0.9259,   -0.7840,    0.3322,    1.1543,    0.8456,    0.4195,   -0.3822,   -1.0524,   -1.3669,   -1.5777,  999.0000,  999.0000,   -1.4899,   -1.3224,  999.0000,  999.0000,  999.0000,  999.0000,  999.0000,  999.0000,  999.0000,  999.0000,  999.0000,  999.0000,  999.0000,  999.0000,  999.0000,  999.0000,  999.0000,  999.0000,  999.0000,  999.0000,    6.4242,    6.5418,    6.4749,  999.0000,  999.0000,    6.2714,    6.6159,    7.0953,    7.5483,    7.8631,    8.2362,    8.3890,    8.7985,    9.2212,    9.1791,    9.0788,    9.2544,    9.4537,  999.0000,  999.0000,  999.0000,  999.0000,  999.0000,  999.0000,  999.0000,    8.0850,    8.1809,    8.3129,    8.7333,    9.1989,    9.6923,   10.9051,   11.9788,
  7-AUG-2000 23:52:55.00,  999.0000,    0.1306,    0.5651,    0.8987,    0.8446,    0.6103,   -0.2002,   -0.8183,   -0.9163,   -0.9801,  999.0000,  999.0000,   -0.9340,   -0.9905,   -1.1719,   -1.2436,   -1.1485,   -0.7994,   -0.1118,    0.5590,    1.2100,    1.5369,    1.5296,    1.9723,    2.8237,    3.4279,    3.8346,    3.8367,    4.6254,    5.4141,    6.1361,    6.8923,    6.8079,    6.3659,    6.2477,    6.2551,    6.1255,    5.9453,    6.1079,    6.3775,    5.8467,    6.0378,    6.3289,    6.7396,    6.9343,    7.1480,    7.0997,    7.0185,    7.7194,    8.4877,  999.0000,  999.0000,  999.0000,  999.0000,  999.0000,    6.1499,    6.4957,    6.8212,    6.9114,    6.9994,    7.0692,    7.1770,    7.5121,    8.0461,    9.5193,
  7-AUG-2000 23:58:00.00,   -0.3994,    0.1253,    0.8758,    1.4098,    1.1113,    0.7178,    0.0199,   -0.6423,   -1.2085,   -1.6193,   -1.6705,   -1.7939,   -2.0616,   -2.2045,  999.0000,  999.0000,   -1.9829,   -1.6114,  999.0000,  999.0000,    0.6927,    1.3646,  999.0000,  999.0000,    3.0828,    3.3819,    3.4624,    3.2142,    4.5127,    5.8112,    6.4067,    6.9298,    6.3271,    6.6915,    6.6488,    6.5798,    6.7368,    6.9773,    6.9907,    6.9331,  999.0000,  999.0000,  999.0000,    7.2886,    7.7429,    8.2467,    8.1823,    8.0469,    8.5687,    9.1472,    9.2011,    9.2288,    8.9933,    8.7422,    7.7746,    6.8434,    6.7705,    6.6886,    7.0581,    7.3899,    7.4204,    7.5093,    7.9486,    8.5154,    9.6841,
